Time,TemperatureF,DewpointF,PressureIn,WindDirection,WindDirectionDegrees,WindSpeedMPH,WindSpeedGustMPH,Humidity,HourlyPrecipIn,Conditions,Clouds,dailyrainin,SoftwareType,DateUTC
2013-07-08 00:01:00,72.2,49.1,29.68,SSW,203,6.0,9.0,44,0.00,,,0.00,Wunderground v.1.15,2013-07-08 06:01:00,
2013-07-08 00:02:00,72.2,49.1,29.68,SSW,204,7.0,9.0,44,0.00,,,0.00,Wunderground v.1.15,2013-07-08 06:02:00,
2013-07-08 00:03:00,72.1,49.0,29.68,SSW,202,4.0,10.0,44,0.00,,,0.00,Wunderground v.1.15,2013-07-08 06:03:00,
2013-07-08 00:04:00,72.1,49.0,29.68,SSW,202,9.0,13.0,44,0.00,,,0.00,Wunderground v.1.15,2013-07-08 06:04:00,
2013-07-08 00:06:00,72.0,49.5,29.68,SSW,192,6.0,13.0,45,0.00,,,0.00,Wunderground v.1.15,2013-07-08 06:06:00,
2013-07-08 00:07:00,72.0,49.5,29.68,SSW,204,8.0,13.0,45,0.00,,,0.00,Wunderground v.1.15,2013-07-08 06:07:00,
2013-07-08 00:08:00,71.9,49.4,29.68,West,276,4.0,13.0,45,0.00,,,0.00,Wunderground v.1.15,2013-07-08 06:08:00,
2013-07-08 00:10:00,71.8,49.3,29.68,SSW,203,11.0,13.0,45,0.00,,,0.00,Wunderground v.1.15,2013-07-08 06:10:00,
2013-07-08 00:11:00,71.6,49.7,29.68,North,360,6.0,16.0,46,0.00,,,0.00,Wunderground v.1.15,2013-07-08 06:11:00,
2013-07-08 00:12:00,71.6,49.7,29.68,North,360,8.0,16.0,46,0.00,,,0.00,Wunderground v.1.15,2013-07-08 06:12:00,
2013-07-08 00:13:00,71.5,49.6,29.68,SSW,206,4.0,16.0,46,0.00,,,0.00,Wunderground v.1.15,2013-07-08 06:13:00,
2013-07-08 00:15:00,71.4,48.9,29.68,South,180,5.0,16.0,45,0.00,,,0.00,Wunderground v.1.15,2013-07-08 06:15:00,
2013-07-08 00:16:00,71.4,49.5,29.68,SSE,165,5.0,16.0,46,0.00,,,0.00,Wunderground v.1.15,2013-07-08 06:16:00,
2013-07-08 00:17:00,71.4,49.5,29.68,SSE,165,4.0,16.0,46,0.00,,,0.00,Wunderground v.1.15,2013-07-08 06:17:00,
2013-07-08 00:18:00,71.3,49.4,29.68,SSE,160,6.0,16.0,46,0.00,,,0.00,Wunderground v.1.15,2013-07-08 06:18:00,
2013-07-08 00:20:00,71.1,49.8,29.68,SSE,157,6.0,7.0,47,0.00,,,0.00,Wunderground v.1.15,2013-07-08 06:20:00,
2013-07-08 00:21:00,71.0,49.7,29.68,SSE,159,7.0,9.0,47,0.00,,,0.00,Wunderground v.1.15,2013-07-08 06:21:00,
2013-07-08 00:22:00,71.0,49.7,29.68,SSE,164,5.0,9.0,47,0.00,,,0.00,Wunderground v.1.15,2013-07-08 06:22:00,
2013-07-08 00:23:00,70.9,49.7,29.68,SE,141,3.0,12.0,47,0.00,,,0.00,Wunderground v.1.15,2013-07-08 06:23:00,
2013-07-08 00:26:00,70.8,49.6,29.68,ESE,103,8.0,14.0,47,0.00,,,0.00,Wunderground v.1.15,2013-07-08 06:26:00,
2013-07-08 00:27:00,70.8,49.6,29.68,East,101,5.0,14.0,47,0.00,,,0.00,Wunderground v.1.15,2013-07-08 06:27:00,
2013-07-08 00:28:00,70.8,49.6,29.68,ESE,102,5.0,14.0,47,0.00,,,0.00,Wunderground v.1.15,2013-07-08 06:28:00,
2013-07-08 00:29:00,70.7,49.5,29.68,ESE,113,1.0,14.0,47,0.00,,,0.00,Wunderground v.1.15,2013-07-08 06:29:00,
2013-07-08 00:31:00,70.6,50.0,29.68,ESE,111,0.0,5.0,48,0.00,,,0.00,Wunderground v.1.15,2013-07-08 06:31:00,
2013-07-08 00:32:00,70.6,50.0,29.68,ESE,115,3.0,5.0,48,0.00,,,0.00,Wunderground v.1.15,2013-07-08 06:32:00,
2013-07-08 00:33:00,70.6,50.0,29.68,ESE,117,0.0,5.0,48,0.00,,,0.00,Wunderground v.1.15,2013-07-08 06:33:00,
2013-07-08 00:34:00,70.5,49.9,29.68,ESE,116,5.0,5.0,48,0.00,,,0.00,Wunderground v.1.15,2013-07-08 06:34:00,
2013-07-08 00:36:00,70.5,49.9,29.68,ESE,119,1.0,5.0,48,0.00,,,0.00,Wunderground v.1.15,2013-07-08 06:36:00,
2013-07-08 00:37:00,70.4,49.8,29.68,ESE,119,0.0,5.0,48,0.00,,,0.00,Wunderground v.1.15,2013-07-08 06:37:00,
2013-07-08 00:38:00,70.4,49.8,29.68,ESE,118,1.0,5.0,48,0.00,,,0.00,Wunderground v.1.15,2013-07-08 06:38:00,
2013-07-08 00:39:00,70.4,49.8,29.68,ESE,119,3.0,5.0,48,0.00,,,0.00,Wunderground v.1.15,2013-07-08 06:39:00,
2013-07-08 00:41:00,70.4,49.8,29.68,ESE,117,2.0,7.0,48,0.00,,,0.00,Wunderground v.1.15,2013-07-08 06:41:00,
2013-07-08 00:42:00,70.4,49.8,29.68,ESE,117,0.0,7.0,48,0.00,,,0.00,Wunderground v.1.15,2013-07-08 06:42:00,
2013-07-08 00:43:00,70.4,49.8,29.68,ESE,117,0.0,7.0,48,0.00,,,0.00,Wunderground v.1.15,2013-07-08 06:43:00,
2013-07-08 00:44:00,70.4,49.8,29.68,ESE,117,0.0,7.0,48,0.00,,,0.00,Wunderground v.1.15,2013-07-08 06:44:00,
2013-07-08 00:45:00,70.4,49.8,29.68,ESE,117,0.0,7.0,48,0.00,,,0.00,Wunderground v.1.15,2013-07-08 06:45:00,
2013-07-08 00:46:00,70.3,50.2,29.68,ESE,117,2.0,7.0,49,0.00,,,0.00,Wunderground v.1.15,2013-07-08 06:46:00,
2013-07-08 00:47:00,70.3,49.7,29.68,ESE,117,0.0,7.0,48,0.00,,,0.00,Wunderground v.1.15,2013-07-08 06:47:00,
2013-07-08 00:48:00,70.2,50.1,29.68,ESE,117,2.0,7.0,49,0.00,,,0.00,Wunderground v.1.15,2013-07-08 06:48:00,
2013-07-08 00:49:00,70.1,49.5,29.68,ESE,117,2.0,7.0,48,0.00,,,0.00,Wunderground v.1.15,2013-07-08 06:49:00,
2013-07-08 00:50:00,70.1,49.5,29.68,ESE,117,4.0,4.0,48,0.00,,,0.00,Wunderground v.1.15,2013-07-08 06:50:00,
2013-07-08 00:52:00,70.1,50.0,29.68,ESE,116,3.0,8.0,49,0.00,,,0.00,Wunderground v.1.15,2013-07-08 06:52:00,
2013-07-08 00:53:00,70.0,50.0,29.68,ESE,115,5.0,9.0,49,0.00,,,0.00,Wunderground v.1.15,2013-07-08 06:53:00,
2013-07-08 00:54:00,69.9,49.9,29.68,ESE,121,7.0,9.0,49,0.00,,,0.00,Wunderground v.1.15,2013-07-08 06:54:00,
2013-07-08 00:55:00,69.8,49.8,29.68,ESE,121,4.0,9.0,49,0.00,,,0.00,Wunderground v.1.15,2013-07-08 06:55:00,
2013-07-08 00:57:00,69.4,49.4,29.68,SE,129,7.0,9.0,49,0.00,,,0.00,Wunderground v.1.15,2013-07-08 06:57:00,
2013-07-08 00:58:00,69.3,49.9,29.68,SE,137,5.0,9.0,50,0.00,,,0.00,Wunderground v.1.15,2013-07-08 06:58:00,
2013-07-08 00:59:00,69.2,49.8,29.68,SE,134,3.0,10.0,50,0.00,,,0.00,Wunderground v.1.15,2013-07-08 06:59:00,
2013-07-08 01:00:00,69.0,49.6,29.67,SE,140,5.0,7.0,50,0.00,,,0.00,Wunderground v.1.15,2013-07-08 07:00:00,
2013-07-08 01:02:00,69.0,49.6,29.67,SSE,158,4.0,8.0,50,0.00,,,0.00,Wunderground v.1.15,2013-07-08 07:02:00,
2013-07-08 01:03:00,69.0,49.6,29.67,SE,136,5.0,9.0,50,0.00,,,0.00,Wunderground v.1.15,2013-07-08 07:03:00,
2013-07-08 01:04:00,68.9,49.5,29.67,SSE,155,5.0,9.0,50,0.00,,,0.00,Wunderground v.1.15,2013-07-08 07:04:00,
2013-07-08 01:06:00,68.9,49.5,29.67,SSE,161,6.0,10.0,50,0.00,,,0.00,Wunderground v.1.15,2013-07-08 07:06:00,
2013-07-08 01:07:00,68.9,49.5,29.67,North,360,8.0,10.0,50,0.00,,,0.00,Wunderground v.1.15,2013-07-08 07:07:00,
2013-07-08 01:08:00,68.9,49.5,29.67,SE,142,7.0,10.0,50,0.00,,,0.00,Wunderground v.1.15,2013-07-08 07:08:00,
2013-07-08 01:09:00,69.0,49.6,29.67,SSE,163,7.0,10.0,50,0.00,,,0.00,Wunderground v.1.15,2013-07-08 07:09:00,
2013-07-08 01:10:00,69.0,49.6,29.67,SSE,161,7.0,8.0,50,0.00,,,0.00,Wunderground v.1.15,2013-07-08 07:10:00,
2013-07-08 01:11:00,69.1,49.1,29.67,SSE,150,3.0,8.0,49,0.00,,,0.00,Wunderground v.1.15,2013-07-08 07:11:00,
2013-07-08 01:12:00,69.3,49.3,29.67,SSE,151,0.0,8.0,49,0.00,,,0.00,Wunderground v.1.15,2013-07-08 07:12:00,
2013-07-08 01:13:00,69.3,49.3,29.67,SSE,150,0.0,8.0,49,0.00,,,0.00,Wunderground v.1.15,2013-07-08 07:13:00,
2013-07-08 01:14:00,69.4,49.4,29.67,SSE,156,4.0,8.0,49,0.00,,,0.00,Wunderground v.1.15,2013-07-08 07:14:00,
2013-07-08 01:15:00,69.4,49.4,29.67,SSE,155,0.0,8.0,49,0.00,,,0.00,Wunderground v.1.15,2013-07-08 07:15:00,
2013-07-08 01:16:00,69.4,49.4,29.67,SSE,155,2.0,8.0,49,0.00,,,0.00,Wunderground v.1.15,2013-07-08 07:16:00,
2013-07-08 01:17:00,69.4,49.4,29.67,South,175,4.0,8.0,49,0.00,,,0.00,Wunderground v.1.15,2013-07-08 07:17:00,
2013-07-08 01:18:00,69.4,49.4,29.67,South,174,5.0,8.0,49,0.00,,,0.00,Wunderground v.1.15,2013-07-08 07:18:00,
2013-07-08 01:20:00,69.4,48.9,29.67,South,186,3.0,3.0,48,0.00,,,0.00,Wunderground v.1.15,2013-07-08 07:20:00,
2013-07-08 01:21:00,69.4,48.9,29.67,South,185,1.0,5.0,48,0.00,,,0.00,Wunderground v.1.15,2013-07-08 07:21:00,
2013-07-08 01:22:00,69.4,49.4,29.67,South,173,5.0,6.0,49,0.00,,,0.00,Wunderground v.1.15,2013-07-08 07:22:00,
2013-07-08 01:24:00,69.3,49.9,29.67,SE,130,5.0,10.0,50,0.00,,,0.00,Wunderground v.1.15,2013-07-08 07:24:00,
2013-07-08 01:25:00,69.2,49.8,29.68,North,360,9.0,11.0,50,0.00,,,0.00,Wunderground v.1.15,2013-07-08 07:25:00,
2013-07-08 01:26:00,69.0,49.6,29.68,North,360,2.0,11.0,50,0.00,,,0.00,Wunderground v.1.15,2013-07-08 07:26:00,
2013-07-08 01:28:00,68.8,49.4,29.68,SE,132,12.0,12.0,50,0.00,,,0.00,Wunderground v.1.15,2013-07-08 07:28:00,
2013-07-08 01:29:00,68.8,49.4,29.68,North,360,6.0,12.0,50,0.00,,,0.00,Wunderground v.1.15,2013-07-08 07:29:00,
2013-07-08 01:30:00,68.8,49.4,29.68,SE,129,4.0,6.0,50,0.00,,,0.00,Wunderground v.1.15,2013-07-08 07:30:00,
2013-07-08 01:31:00,68.8,49.4,29.68,SE,131,0.0,6.0,50,0.00,,,0.00,Wunderground v.1.15,2013-07-08 07:31:00,
2013-07-08 01:33:00,68.8,49.4,29.68,SE,129,2.0,6.0,50,0.00,,,0.00,Wunderground v.1.15,2013-07-08 07:33:00,
2013-07-08 01:34:00,68.8,49.4,29.68,SE,129,0.0,6.0,50,0.00,,,0.00,Wunderground v.1.15,2013-07-08 07:34:00,
2013-07-08 01:36:00,68.8,49.4,29.68,SE,146,4.0,7.0,50,0.00,,,0.00,Wunderground v.1.15,2013-07-08 07:36:00,
2013-07-08 01:38:00,68.8,48.9,29.68,North,360,4.0,7.0,49,0.00,,,0.00,Wunderground v.1.15,2013-07-08 07:38:00,
2013-07-08 01:39:00,68.9,48.9,29.67,North,360,2.0,9.0,49,0.00,,,0.00,Wunderground v.1.15,2013-07-08 07:39:00,
2013-07-08 01:41:00,68.9,48.9,29.68,South,182,3.0,7.0,49,0.00,,,0.00,Wunderground v.1.15,2013-07-08 07:41:00,
2013-07-08 01:43:00,69.0,49.0,29.67,SSW,205,6.0,13.0,49,0.00,,,0.00,Wunderground v.1.15,2013-07-08 07:43:00,
2013-07-08 01:44:00,69.0,49.0,29.68,SSW,198,5.0,13.0,49,0.00,,,0.00,Wunderground v.1.15,2013-07-08 07:44:00,
2013-07-08 01:46:00,69.0,49.0,29.67,North,360,4.0,13.0,49,0.00,,,0.00,Wunderground v.1.15,2013-07-08 07:46:00,
2013-07-08 01:48:00,69.1,48.6,29.67,North,360,5.0,13.0,48,0.00,,,0.00,Wunderground v.1.15,2013-07-08 07:48:00,
2013-07-08 01:49:00,69.2,48.7,29.67,North,360,2.0,13.0,48,0.00,,,0.00,Wunderground v.1.15,2013-07-08 07:49:00,
2013-07-08 01:51:00,69.2,48.7,29.67,SSW,202,10.0,11.0,48,0.00,,,0.00,Wunderground v.1.15,2013-07-08 07:51:00,
2013-07-08 01:52:00,69.2,48.7,29.67,West,261,5.0,13.0,48,0.00,,,0.00,Wunderground v.1.15,2013-07-08 07:52:00,
2013-07-08 01:53:00,69.3,48.8,29.67,West,268,3.0,13.0,48,0.00,,,0.00,Wunderground v.1.15,2013-07-08 07:53:00,
2013-07-08 01:54:00,69.4,48.9,29.67,West,269,0.0,13.0,48,0.00,,,0.00,Wunderground v.1.15,2013-07-08 07:54:00,
2013-07-08 01:56:00,69.4,48.9,29.67,West,269,1.0,13.0,48,0.00,,,0.00,Wunderground v.1.15,2013-07-08 07:56:00,
2013-07-08 01:57:00,69.4,48.9,29.67,West,269,0.0,13.0,48,0.00,,,0.00,Wunderground v.1.15,2013-07-08 07:57:00,
2013-07-08 01:58:00,69.4,48.9,29.67,West,269,0.0,13.0,48,0.00,,,0.00,Wunderground v.1.15,2013-07-08 07:58:00,
2013-07-08 02:00:00,69.4,48.9,29.68,West,269,0.0,3.0,48,0.00,,,0.00,Wunderground v.1.15,2013-07-08 08:00:00,
2013-07-08 02:02:00,69.5,48.9,29.67,North,360,5.0,6.0,48,0.00,,,0.00,Wunderground v.1.15,2013-07-08 08:02:00,
2013-07-08 02:03:00,69.5,48.4,29.68,North,360,0.0,6.0,47,0.00,,,0.00,Wunderground v.1.15,2013-07-08 08:03:00,
2013-07-08 02:05:00,69.5,48.4,29.68,SSW,194,4.0,7.0,47,0.00,,,0.00,Wunderground v.1.15,2013-07-08 08:05:00,
2013-07-08 02:07:00,69.7,48.6,29.68,SSW,194,8.0,8.0,47,0.00,,,0.00,Wunderground v.1.15,2013-07-08 08:07:00,
2013-07-08 02:08:00,69.7,48.6,29.68,North,360,4.0,9.0,47,0.00,,,0.00,Wunderground v.1.15,2013-07-08 08:08:00,
2013-07-08 02:11:00,70.0,48.3,29.68,SSW,206,6.0,8.0,46,0.00,,,0.00,Wunderground v.1.15,2013-07-08 08:11:00,
2013-07-08 02:12:00,70.1,48.4,29.68,South,190,7.0,8.0,46,0.00,,,0.00,Wunderground v.1.15,2013-07-08 08:12:00,
2013-07-08 02:13:00,70.3,48.5,29.68,SSE,160,4.0,8.0,46,0.00,,,0.00,Wunderground v.1.15,2013-07-08 08:13:00,
2013-07-08 02:14:00,70.3,48.5,29.68,SSE,163,6.0,8.0,46,0.00,,,0.00,Wunderground v.1.15,2013-07-08 08:14:00,
2013-07-08 02:16:00,70.5,48.7,29.68,North,360,9.0,10.0,46,0.00,,,0.00,Wunderground v.1.15,2013-07-08 08:16:00,
2013-07-08 02:17:00,70.5,48.7,29.68,North,360,5.0,11.0,46,0.00,,,0.00,Wunderground v.1.15,2013-07-08 08:17:00,
2013-07-08 02:18:00,70.6,48.8,29.68,North,360,6.0,11.0,46,0.00,,,0.00,Wunderground v.1.15,2013-07-08 08:18:00,
2013-07-08 02:19:00,70.6,48.8,29.68,SW,225,6.0,11.0,46,0.00,,,0.00,Wunderground v.1.15,2013-07-08 08:19:00,
2013-07-08 02:22:00,70.6,48.8,29.68,West,261,7.0,15.0,46,0.00,,,0.00,Wunderground v.1.15,2013-07-08 08:22:00,
2013-07-08 02:24:00,70.6,48.8,29.68,SSW,198,15.0,15.0,46,0.00,,,0.00,Wunderground v.1.15,2013-07-08 08:24:00,
2013-07-08 02:27:00,70.7,48.9,29.68,North,360,8.0,18.0,46,0.00,,,0.00,Wunderground v.1.15,2013-07-08 08:27:00,
2013-07-08 02:28:00,70.6,48.8,29.68,SSW,206,11.0,18.0,46,0.00,,,0.00,Wunderground v.1.15,2013-07-08 08:28:00,
2013-07-08 02:29:00,70.6,48.8,29.68,SSW,207,6.0,18.0,46,0.00,,,0.00,Wunderground v.1.15,2013-07-08 08:29:00,
2013-07-08 02:32:00,70.7,48.9,29.68,SSW,206,9.0,13.0,46,0.00,,,0.00,Wunderground v.1.15,2013-07-08 08:32:00,
2013-07-08 02:33:00,70.7,48.9,29.68,North,360,9.0,13.0,46,0.00,,,0.00,Wunderground v.1.15,2013-07-08 08:33:00,
2013-07-08 02:34:00,70.6,48.8,29.68,SSW,207,9.0,17.0,46,0.00,,,0.00,Wunderground v.1.15,2013-07-08 08:34:00,
2013-07-08 02:35:00,70.6,48.8,29.68,SSW,204,9.0,17.0,46,0.00,,,0.00,Wunderground v.1.15,2013-07-08 08:35:00,
2013-07-08 02:37:00,70.8,48.4,29.68,West,261,13.0,21.0,45,0.00,,,0.00,Wunderground v.1.15,2013-07-08 08:37:00,
2013-07-08 02:38:00,70.8,48.4,29.68,West,262,8.0,21.0,45,0.00,,,0.00,Wunderground v.1.15,2013-07-08 08:38:00,
2013-07-08 02:39:00,70.9,48.5,29.68,North,360,10.0,21.0,45,0.00,,,0.00,Wunderground v.1.15,2013-07-08 08:39:00,
2013-07-08 02:40:00,70.9,48.5,29.68,WSW,248,9.0,10.0,45,0.00,,,0.00,Wunderground v.1.15,2013-07-08 08:40:00,
2013-07-08 02:43:00,71.1,48.7,29.68,WSW,255,8.0,15.0,45,0.00,,,0.00,Wunderground v.1.15,2013-07-08 08:43:00,
2013-07-08 02:44:00,71.1,48.7,29.68,WNW,287,5.0,15.0,45,0.00,,,0.00,Wunderground v.1.15,2013-07-08 08:44:00,
2013-07-08 02:45:00,71.2,48.8,29.68,North,360,9.0,15.0,45,0.00,,,0.00,Wunderground v.1.15,2013-07-08 08:45:00,
2013-07-08 02:48:00,71.2,48.8,29.68,North,360,10.0,15.0,45,0.00,,,0.00,Wunderground v.1.15,2013-07-08 08:48:00,
2013-07-08 02:49:00,71.3,48.9,29.68,WNW,296,12.0,15.0,45,0.00,,,0.00,Wunderground v.1.15,2013-07-08 08:49:00,
2013-07-08 02:51:00,71.3,48.9,29.68,SSW,209,11.0,11.0,45,0.00,,,0.00,Wunderground v.1.15,2013-07-08 08:51:00,
2013-07-08 02:53:00,71.5,49.0,29.68,West,261,16.0,18.0,45,0.00,,,0.00,Wunderground v.1.15,2013-07-08 08:53:00,
2013-07-08 02:54:00,71.6,48.5,29.68,West,261,11.0,19.0,44,0.00,,,0.00,Wunderground v.1.15,2013-07-08 08:54:00,
2013-07-08 02:56:00,72.0,48.9,29.68,West,259,16.0,19.0,44,0.00,,,0.00,Wunderground v.1.15,2013-07-08 08:56:00,
2013-07-08 02:58:00,72.3,49.2,29.68,North,360,16.0,23.0,44,0.00,,,0.00,Wunderground v.1.15,2013-07-08 08:58:00,
2013-07-08 02:59:00,72.3,49.2,29.68,North,360,23.0,23.0,44,0.00,,,0.00,Wunderground v.1.15,2013-07-08 08:59:00,
2013-07-08 03:02:00,72.9,49.1,29.69,West,280,15.0,30.0,43,0.00,,,0.00,Wunderground v.1.15,2013-07-08 09:02:00,
2013-07-08 03:04:00,73.0,49.2,29.69,West,259,18.0,30.0,43,0.00,,,0.00,Wunderground v.1.15,2013-07-08 09:04:00,
2013-07-08 03:05:00,73.0,49.2,29.69,WNW,291,22.0,31.0,43,0.00,,,0.00,Wunderground v.1.15,2013-07-08 09:05:00,
2013-07-08 03:07:00,73.0,49.2,29.68,West,269,12.0,31.0,43,0.00,,,0.00,Wunderground v.1.15,2013-07-08 09:07:00,
2013-07-08 03:09:00,72.9,49.1,29.69,North,360,14.0,31.0,43,0.00,,,0.00,Wunderground v.1.15,2013-07-08 09:09:00,
2013-07-08 03:10:00,72.9,49.1,29.68,WSW,255,24.0,24.0,43,0.00,,,0.00,Wunderground v.1.15,2013-07-08 09:10:00,
2013-07-08 03:12:00,72.7,49.5,29.68,WSW,253,30.0,32.0,44,0.00,,,0.00,Wunderground v.1.15,2013-07-08 09:12:00,
2013-07-08 03:14:00,72.5,49.3,29.68,West,272,22.0,36.0,44,0.00,,,0.00,Wunderground v.1.15,2013-07-08 09:14:00,
2013-07-08 03:15:00,72.4,-99.9,29.68,North,360,35.0,36.0,255,0.00,,,0.00,Wunderground v.1.15,2013-07-08 09:15:00,
2013-07-08 03:17:00,72.0,49.5,29.68,WSW,257,15.0,36.0,45,0.00,,,0.00,Wunderground v.1.15,2013-07-08 09:17:00,
2013-07-08 03:19:00,71.9,49.4,29.68,West,270,23.0,36.0,45,0.00,,,0.00,Wunderground v.1.15,2013-07-08 09:19:00,
2013-07-08 03:20:00,71.8,49.9,29.68,WSW,252,19.0,29.0,46,0.00,,,0.00,Wunderground v.1.15,2013-07-08 09:20:00,
2013-07-08 03:22:00,71.4,50.1,29.68,West,278,17.0,36.0,47,0.00,,,0.00,Wunderground v.1.15,2013-07-08 09:22:00,
2013-07-08 03:24:00,71.3,49.4,29.68,South,186,18.0,36.0,46,0.00,,,0.00,Wunderground v.1.15,2013-07-08 09:24:00,
2013-07-08 03:25:00,71.2,49.9,29.68,WSW,257,22.0,36.0,47,0.00,,,0.00,Wunderground v.1.15,2013-07-08 09:25:00,
2013-07-08 03:28:00,71.1,49.8,29.68,SSW,192,23.0,46.0,47,0.00,,,0.00,Wunderground v.1.15,2013-07-08 09:28:00,
2013-07-08 03:29:00,71.0,50.3,29.68,North,360,21.0,46.0,48,0.00,,,0.00,Wunderground v.1.15,2013-07-08 09:29:00,
2013-07-08 03:30:00,70.8,49.6,29.68,North,360,29.0,29.0,47,0.00,,,0.00,Wunderground v.1.15,2013-07-08 09:30:00,
2013-07-08 03:33:00,70.7,49.5,29.68,North,360,29.0,33.0,47,0.00,,,0.00,Wunderground v.1.15,2013-07-08 09:33:00,
2013-07-08 03:34:00,70.7,50.0,29.68,North,360,21.0,36.0,48,0.00,,,0.00,Wunderground v.1.15,2013-07-08 09:34:00,
2013-07-08 03:35:00,70.7,50.0,29.68,SSW,202,18.0,36.0,48,0.00,,,0.00,Wunderground v.1.15,2013-07-08 09:35:00,
2013-07-08 03:36:00,70.7,49.5,29.68,SSW,205,17.0,36.0,47,0.00,,,0.00,Wunderground v.1.15,2013-07-08 09:36:00,
2013-07-08 03:38:00,70.7,49.5,29.68,WSW,253,8.0,36.0,47,0.00,,,0.00,Wunderground v.1.15,2013-07-08 09:38:00,
2013-07-08 03:40:00,70.8,49.6,29.68,SSW,196,9.0,21.0,47,0.00,,,0.00,Wunderground v.1.15,2013-07-08 09:40:00,
2013-07-08 03:42:00,70.8,49.0,29.68,SSW,203,9.0,21.0,46,0.00,,,0.00,Wunderground v.1.15,2013-07-08 09:42:00,
2013-07-08 03:43:00,70.9,48.5,29.67,SSW,196,10.0,21.0,45,0.00,,,0.00,Wunderground v.1.15,2013-07-08 09:43:00,
2013-07-08 03:45:00,71.1,48.1,29.67,North,360,4.0,21.0,44,0.00,,,0.00,Wunderground v.1.15,2013-07-08 09:45:00,
2013-07-08 03:46:00,71.2,48.2,29.66,SSE,161,17.0,21.0,44,0.00,,,0.00,Wunderground v.1.15,2013-07-08 09:46:00,
2013-07-08 03:47:00,71.4,48.3,29.66,SSE,163,13.0,21.0,44,0.00,,,0.00,Wunderground v.1.15,2013-07-08 09:47:00,
2013-07-08 03:50:00,71.6,47.9,29.63,SE,140,10.0,11.0,43,0.00,,,0.00,Wunderground v.1.15,2013-07-08 09:50:00,
2013-07-08 03:51:00,71.7,47.4,29.64,SSE,152,5.0,12.0,42,0.00,,,0.00,Wunderground v.1.15,2013-07-08 09:51:00,
2013-07-08 03:52:00,71.9,47.6,29.65,North,360,14.0,14.0,42,0.00,,,0.00,Wunderground v.1.15,2013-07-08 09:52:00,
2013-07-08 03:55:00,71.8,49.3,29.66,SSW,205,17.0,26.0,45,0.00,,,0.00,Wunderground v.1.15,2013-07-08 09:55:00,
2013-07-08 03:56:00,71.6,50.3,29.67,SSW,207,15.0,26.0,47,0.00,,,0.00,Wunderground v.1.15,2013-07-08 09:56:00,
2013-07-08 03:58:00,70.7,49.5,29.67,SSW,205,12.0,26.0,47,0.00,,,0.00,Wunderground v.1.15,2013-07-08 09:58:00,
2013-07-08 04:00:00,70.1,50.0,29.66,SSW,206,17.0,17.0,49,0.00,,,0.00,Wunderground v.1.15,2013-07-08 10:00:00,
2013-07-08 04:01:00,69.6,49.6,29.66,SSW,199,18.0,24.0,49,0.00,,,0.00,Wunderground v.1.15,2013-07-08 10:01:00,
2013-07-08 04:02:00,69.4,49.4,29.67,North,360,23.0,24.0,49,0.00,,,0.00,Wunderground v.1.15,2013-07-08 10:02:00,
2013-07-08 04:03:00,69.1,49.7,29.67,SSW,203,8.0,24.0,50,0.00,,,0.00,Wunderground v.1.15,2013-07-08 10:03:00,
2013-07-08 04:05:00,68.7,49.3,29.67,North,360,19.0,29.0,50,0.00,,,0.00,Wunderground v.1.15,2013-07-08 10:05:00,
2013-07-08 04:06:00,68.6,49.2,29.67,SSE,161,12.0,29.0,50,0.00,,,0.00,Wunderground v.1.15,2013-07-08 10:06:00,
2013-07-08 04:07:00,68.4,49.0,29.66,North,360,14.0,29.0,50,0.00,,,0.00,Wunderground v.1.15,2013-07-08 10:07:00,
2013-07-08 04:09:00,68.3,48.9,29.66,South,190,8.0,29.0,50,0.00,,,0.00,Wunderground v.1.15,2013-07-08 10:09:00,
2013-07-08 04:10:00,68.2,48.8,29.66,South,188,11.0,22.0,50,0.00,,,0.00,Wunderground v.1.15,2013-07-08 10:10:00,
2013-07-08 04:11:00,68.1,48.8,29.66,South,172,17.0,22.0,50,0.00,,,0.00,Wunderground v.1.15,2013-07-08 10:11:00,
2013-07-08 04:12:00,68.1,48.8,29.66,SE,138,12.0,22.0,50,0.00,,,0.00,Wunderground v.1.15,2013-07-08 10:12:00,
2013-07-08 04:13:00,68.1,48.8,29.66,North,360,17.0,22.0,50,0.00,,,0.00,Wunderground v.1.15,2013-07-08 10:13:00,
2013-07-08 04:15:00,68.0,49.2,29.66,SSW,205,13.0,22.0,51,0.00,,,0.00,Wunderground v.1.15,2013-07-08 10:15:00,
2013-07-08 04:16:00,67.9,49.1,29.66,SSE,159,13.0,22.0,51,0.00,,,0.00,Wunderground v.1.15,2013-07-08 10:16:00,
2013-07-08 04:18:00,67.9,49.1,29.66,SSE,166,18.0,26.0,51,0.00,,,0.00,Wunderground v.1.15,2013-07-08 10:18:00,
2013-07-08 04:19:00,67.7,49.4,29.66,North,360,12.0,26.0,52,0.00,,,0.00,Wunderground v.1.15,2013-07-08 10:19:00,
2013-07-08 04:20:00,67.6,49.3,29.66,North,360,17.0,27.0,52,0.00,,,0.00,Wunderground v.1.15,2013-07-08 10:20:00,
2013-07-08 04:21:00,67.6,48.8,29.65,North,360,13.0,27.0,51,0.00,,,0.00,Wunderground v.1.15,2013-07-08 10:21:00,
2013-07-08 04:23:00,67.5,49.3,29.65,SSE,155,10.0,27.0,52,0.00,,,0.00,Wunderground v.1.15,2013-07-08 10:23:00,
2013-07-08 04:24:00,67.4,49.2,29.65,SSW,195,10.0,27.0,52,0.00,,,0.00,Wunderground v.1.15,2013-07-08 10:24:00,
2013-07-08 04:25:00,67.4,49.2,29.65,South,174,17.0,27.0,52,0.00,,,0.00,Wunderground v.1.15,2013-07-08 10:25:00,
2013-07-08 04:26:00,67.4,49.2,29.65,North,360,23.0,27.0,52,0.00,,,0.00,Wunderground v.1.15,2013-07-08 10:26:00,
2013-07-08 04:28:00,67.3,49.1,29.65,North,360,15.0,27.0,52,0.00,,,0.00,Wunderground v.1.15,2013-07-08 10:28:00,
2013-07-08 04:29:00,-999.9,-99.9,29.65,SSW,205,7.0,27.0,52,0.00,,,0.00,Wunderground v.1.15,2013-07-08 10:29:00,
2013-07-08 04:31:00,67.2,49.0,29.64,SSW,194,14.0,24.0,52,0.00,,,0.00,Wunderground v.1.15,2013-07-08 10:31:00,
2013-07-08 04:34:00,67.2,49.0,29.64,West,260,20.0,30.0,52,0.00,,,0.00,Wunderground v.1.15,2013-07-08 10:34:00,
2013-07-08 04:36:00,67.3,49.1,29.64,South,173,13.0,30.0,52,0.00,,,0.00,Wunderground v.1.15,2013-07-08 10:36:00,
2013-07-08 04:39:00,67.4,48.6,29.64,South,190,12.0,30.0,51,0.00,,,0.00,Wunderground v.1.15,2013-07-08 10:39:00,
2013-07-08 04:40:00,67.5,48.2,29.64,South,188,14.0,14.0,50,0.00,,,0.00,Wunderground v.1.15,2013-07-08 10:40:00,
2013-07-08 04:41:00,67.6,48.3,29.64,South,173,15.0,23.0,50,0.00,,,0.00,Wunderground v.1.15,2013-07-08 10:41:00,
2013-07-08 04:42:00,67.7,48.4,29.64,SSW,208,7.0,23.0,50,0.00,,,0.00,Wunderground v.1.15,2013-07-08 10:42:00,
2013-07-08 04:44:00,67.8,47.9,29.64,West,261,13.0,23.0,49,0.00,,,0.00,Wunderground v.1.15,2013-07-08 10:44:00,
2013-07-08 04:45:00,67.8,47.9,29.64,SSW,203,12.0,23.0,49,0.00,,,0.00,Wunderground v.1.15,2013-07-08 10:45:00,
2013-07-08 04:47:00,67.9,48.0,29.64,South,188,17.0,23.0,49,0.00,,,0.00,Wunderground v.1.15,2013-07-08 10:47:00,
2013-07-08 04:50:00,68.1,48.2,29.64,WSW,257,13.0,14.0,49,0.00,,,0.00,Wunderground v.1.15,2013-07-08 10:50:00,
2013-07-08 04:52:00,68.1,48.2,29.65,SSW,204,7.0,22.0,49,0.00,,,0.00,Wunderground v.1.15,2013-07-08 10:52:00,
2013-07-08 04:55:00,68.0,48.1,29.64,SSW,212,13.0,24.0,49,0.00,,,0.00,Wunderground v.1.15,2013-07-08 10:55:00,
2013-07-08 04:57:00,68.0,48.1,29.65,South,191,12.0,28.0,49,0.00,,,0.00,Wunderground v.1.15,2013-07-08 10:57:00,
2013-07-08 05:00:00,68.0,48.1,29.64,West,261,13.0,15.0,49,0.00,,,0.00,Wunderground v.1.15,2013-07-08 11:00:00,
2013-07-08 05:02:00,67.9,48.0,29.65,SSW,199,12.0,17.0,49,0.00,,,0.00,Wunderground v.1.15,2013-07-08 11:02:00,
2013-07-08 05:05:00,67.8,47.9,29.65,North,360,12.0,23.0,49,0.00,,,0.00,Wunderground v.1.15,2013-07-08 11:05:00,
2013-07-08 05:07:00,67.7,47.8,29.65,West,259,9.0,23.0,49,0.00,,,0.00,Wunderground v.1.15,2013-07-08 11:07:00,
2013-07-08 05:10:00,67.6,47.8,29.65,North,360,9.0,16.0,49,0.00,,,0.00,Wunderground v.1.15,2013-07-08 11:10:00,
2013-07-08 05:11:00,67.6,47.8,29.65,SSW,204,13.0,16.0,49,0.00,,,0.00,Wunderground v.1.15,2013-07-08 11:11:00,
2013-07-08 05:12:00,67.5,47.7,29.65,North,360,14.0,16.0,49,0.00,,,0.00,Wunderground v.1.15,2013-07-08 11:12:00,
2013-07-08 05:16:00,67.4,47.6,29.65,SSW,206,13.0,23.0,49,0.00,,,0.00,Wunderground v.1.15,2013-07-08 11:16:00,
2013-07-08 05:17:00,67.4,47.6,29.65,SSW,206,18.0,23.0,49,0.00,,,0.00,Wunderground v.1.15,2013-07-08 11:17:00,
2013-07-08 05:18:00,67.4,47.6,29.65,WSW,257,12.0,23.0,49,0.00,,,0.00,Wunderground v.1.15,2013-07-08 11:18:00,
2013-07-08 05:21:00,67.4,48.1,29.65,SSW,207,15.0,18.0,50,0.00,,,0.00,Wunderground v.1.15,2013-07-08 11:21:00,
2013-07-08 05:22:00,67.4,48.1,29.65,North,360,10.0,18.0,50,0.00,,,0.00,Wunderground v.1.15,2013-07-08 11:22:00,
2013-07-08 05:23:00,67.4,48.1,29.65,WSW,251,10.0,18.0,50,0.00,,,0.00,Wunderground v.1.15,2013-07-08 11:23:00,
2013-07-08 05:26:00,67.2,47.9,29.66,North,360,12.0,18.0,50,0.00,,,0.00,Wunderground v.1.15,2013-07-08 11:26:00,
2013-07-08 05:27:00,67.2,47.9,29.66,South,187,7.0,18.0,50,0.00,,,0.00,Wunderground v.1.15,2013-07-08 11:27:00,
2013-07-08 05:28:00,67.1,47.8,29.65,WSW,248,11.0,18.0,50,0.00,,,0.00,Wunderground v.1.15,2013-07-08 11:28:00,
2013-07-08 05:31:00,67.0,47.7,29.65,West,268,9.0,13.0,50,0.00,,,0.00,Wunderground v.1.15,2013-07-08 11:31:00,
2013-07-08 05:32:00,67.1,47.8,29.65,SSW,196,8.0,18.0,50,0.00,,,0.00,Wunderground v.1.15,2013-07-08 11:32:00,
2013-07-08 05:33:00,67.0,47.7,29.65,North,360,6.0,18.0,50,0.00,,,0.00,Wunderground v.1.15,2013-07-08 11:33:00,
2013-07-08 05:36:00,67.0,48.3,29.65,SSW,206,13.0,18.0,51,0.00,,,0.00,Wunderground v.1.15,2013-07-08 11:36:00,
2013-07-08 05:37:00,66.9,48.2,29.65,North,360,5.0,18.0,51,0.00,,,0.00,Wunderground v.1.15,2013-07-08 11:37:00,
2013-07-08 05:38:00,66.9,48.2,29.65,North,360,4.0,18.0,51,0.00,,,0.00,Wunderground v.1.15,2013-07-08 11:38:00,
2013-07-08 05:42:00,66.6,48.4,29.65,SSW,205,3.0,14.0,52,0.00,,,0.00,Wunderground v.1.15,2013-07-08 11:42:00,
2013-07-08 05:43:00,66.6,47.9,29.65,North,360,11.0,14.0,51,0.00,,,0.00,Wunderground v.1.15,2013-07-08 11:43:00,
2013-07-08 05:44:00,66.6,48.4,29.65,North,360,5.0,14.0,52,0.00,,,0.00,Wunderground v.1.15,2013-07-08 11:44:00,
2013-07-08 05:47:00,66.5,48.3,29.65,WNW,284,17.0,19.0,52,0.00,,,0.00,Wunderground v.1.15,2013-07-08 11:47:00,
2013-07-08 05:48:00,66.4,48.2,29.66,North,360,12.0,19.0,52,0.00,,,0.00,Wunderground v.1.15,2013-07-08 11:48:00,
2013-07-08 05:49:00,66.4,48.2,29.66,WSW,256,8.0,19.0,52,0.00,,,0.00,Wunderground v.1.15,2013-07-08 11:49:00,
2013-07-08 05:52:00,66.2,48.0,29.65,North,360,11.0,13.0,52,0.00,,,0.00,Wunderground v.1.15,2013-07-08 11:52:00,
2013-07-08 05:53:00,66.2,48.0,29.65,SSW,194,5.0,20.0,52,0.00,,,0.00,Wunderground v.1.15,2013-07-08 11:53:00,
2013-07-08 05:54:00,66.2,48.0,29.65,SSW,200,9.0,20.0,52,0.00,,,0.00,Wunderground v.1.15,2013-07-08 11:54:00,
2013-07-08 05:57:00,66.3,48.1,29.65,North,360,8.0,20.0,52,0.00,,,0.00,Wunderground v.1.15,2013-07-08 11:57:00,
2013-07-08 05:58:00,66.3,47.6,29.65,SSW,200,7.0,20.0,51,0.00,,,0.00,Wunderground v.1.15,2013-07-08 11:58:00,
2013-07-08 05:59:00,66.4,47.7,29.65,North,360,10.0,22.0,51,0.00,,,0.00,Wunderground v.1.15,2013-07-08 11:59:00,
2013-07-08 06:02:00,66.7,48.0,29.66,SSW,207,9.0,17.0,51,0.00,,,0.00,Wunderground v.1.15,2013-07-08 12:02:00,
2013-07-08 06:03:00,66.8,47.6,29.66,WSW,252,4.0,17.0,50,0.00,,,0.00,Wunderground v.1.15,2013-07-08 12:03:00,
2013-07-08 06:04:00,66.8,47.6,29.66,North,360,6.0,17.0,50,0.00,,,0.00,Wunderground v.1.15,2013-07-08 12:04:00,
2013-07-08 06:05:00,66.8,47.6,29.66,West,269,6.0,17.0,50,0.00,,,0.00,Wunderground v.1.15,2013-07-08 12:05:00,
2013-07-08 06:07:00,67.0,47.7,29.66,West,267,6.0,17.0,50,0.00,,,0.00,Wunderground v.1.15,2013-07-08 12:07:00,
2013-07-08 06:08:00,67.0,47.7,29.66,West,273,5.0,17.0,50,0.00,,,0.00,Wunderground v.1.15,2013-07-08 12:08:00,
2013-07-08 06:10:00,67.0,47.7,29.66,West,259,8.0,9.0,50,0.00,,,0.00,Wunderground v.1.15,2013-07-08 12:10:00,
2013-07-08 06:12:00,67.1,47.8,29.66,SSW,202,9.0,11.0,50,0.00,,,0.00,Wunderground v.1.15,2013-07-08 12:12:00,
2013-07-08 06:13:00,67.1,47.3,29.66,North,360,10.0,17.0,49,0.00,,,0.00,Wunderground v.1.15,2013-07-08 12:13:00,
2013-07-08 06:15:00,67.2,47.4,29.66,WSW,255,14.0,17.0,49,0.00,,,0.00,Wunderground v.1.15,2013-07-08 12:15:00,
2013-07-08 06:16:00,-999.9,-99.9,29.66,SE,139,2.0,17.0,49,0.00,,,0.00,Wunderground v.1.15,2013-07-08 12:16:00,
2013-07-08 06:17:00,67.3,48.0,29.66,West,261,13.0,17.0,50,0.00,,,0.00,Wunderground v.1.15,2013-07-08 12:17:00,
2013-07-08 06:19:00,67.3,48.0,29.66,SSW,207,10.0,18.0,50,0.00,,,0.00,Wunderground v.1.15,2013-07-08 12:19:00,
2013-07-08 06:20:00,67.3,48.0,29.66,SSW,205,10.0,18.0,50,0.00,,,0.00,Wunderground v.1.15,2013-07-08 12:20:00,
2013-07-08 06:21:00,67.3,48.0,29.66,WSW,253,9.0,18.0,50,0.00,,,0.00,Wunderground v.1.15,2013-07-08 12:21:00,
2013-07-08 06:22:00,67.3,-99.9,29.66,WNW,284,6.0,21.0,255,0.00,,,0.00,Wunderground v.1.15,2013-07-08 12:22:00,
2013-07-08 06:24:00,67.3,48.0,29.66,North,360,7.0,21.0,50,0.00,,,0.00,Wunderground v.1.15,2013-07-08 12:24:00,
2013-07-08 06:25:00,67.3,48.0,29.66,North,360,5.0,21.0,50,0.00,,,0.00,Wunderground v.1.15,2013-07-08 12:25:00,
2013-07-08 06:26:00,67.3,48.0,29.66,NNW,345,2.0,21.0,50,0.00,,,0.00,Wunderground v.1.15,2013-07-08 12:26:00,
2013-07-08 06:28:00,67.3,48.0,29.66,WNW,296,3.0,21.0,50,0.00,,,0.00,Wunderground v.1.15,2013-07-08 12:28:00,
2013-07-08 06:30:00,67.4,48.1,29.67,WNW,302,6.0,14.0,50,0.00,,,0.00,Wunderground v.1.15,2013-07-08 12:30:00,
2013-07-08 06:31:00,67.4,48.1,29.67,WNW,303,11.0,14.0,50,0.00,,,0.00,Wunderground v.1.15,2013-07-08 12:31:00,
2013-07-08 06:33:00,67.5,48.2,29.67,WNW,287,2.0,14.0,50,0.00,,,0.00,Wunderground v.1.15,2013-07-08 12:33:00,
2013-07-08 06:35:00,67.6,48.3,29.67,NW,309,0.0,14.0,50,0.00,,,0.00,Wunderground v.1.15,2013-07-08 12:35:00,
2013-07-08 06:36:00,67.6,48.3,29.67,NW,321,8.0,14.0,50,0.00,,,0.00,Wunderground v.1.15,2013-07-08 12:36:00,
2013-07-08 06:38:00,67.7,47.8,29.67,West,268,5.0,14.0,49,0.00,,,0.00,Wunderground v.1.15,2013-07-08 12:38:00,
2013-07-08 06:40:00,67.8,48.5,29.66,WNW,286,2.0,4.0,50,0.00,,,0.00,Wunderground v.1.15,2013-07-08 12:40:00,
2013-07-08 06:41:00,67.8,48.5,29.67,WNW,293,0.0,5.0,50,0.00,,,0.00,Wunderground v.1.15,2013-07-08 12:41:00,
2013-07-08 06:43:00,67.9,48.6,29.67,WNW,293,3.0,5.0,50,0.00,,,0.00,Wunderground v.1.15,2013-07-08 12:43:00,
2013-07-08 06:45:00,67.9,48.6,29.66,WNW,299,1.0,5.0,50,0.00,,,0.00,Wunderground v.1.15,2013-07-08 12:45:00,
2013-07-08 06:46:00,67.9,48.6,29.66,WNW,299,0.0,5.0,50,0.00,,,0.00,Wunderground v.1.15,2013-07-08 12:46:00,
2013-07-08 06:47:00,67.9,48.0,29.66,WNW,299,0.0,5.0,49,0.00,,,0.00,Wunderground v.1.15,2013-07-08 12:47:00,
2013-07-08 06:48:00,68.0,48.1,29.66,WNW,300,0.0,5.0,49,0.00,,,0.00,Wunderground v.1.15,2013-07-08 12:48:00,
2013-07-08 06:50:00,68.1,48.2,29.66,WNW,299,2.0,5.0,49,0.00,,,0.00,Wunderground v.1.15,2013-07-08 12:50:00,
2013-07-08 06:51:00,68.1,48.2,29.66,WNW,296,3.0,5.0,49,0.00,,,0.00,Wunderground v.1.15,2013-07-08 12:51:00,
2013-07-08 06:52:00,68.2,48.3,29.66,WNW,298,0.0,5.0,49,0.00,,,0.00,Wunderground v.1.15,2013-07-08 12:52:00,
2013-07-08 06:54:00,68.3,48.4,29.66,WNW,291,7.0,10.0,49,0.00,,,0.00,Wunderground v.1.15,2013-07-08 12:54:00,
2013-07-08 06:55:00,68.5,48.0,29.66,WNW,300,0.0,10.0,48,0.00,,,0.00,Wunderground v.1.15,2013-07-08 12:55:00,
2013-07-08 06:57:00,68.6,48.1,29.66,West,267,6.0,13.0,48,0.00,,,0.00,Wunderground v.1.15,2013-07-08 12:57:00,
2013-07-08 06:58:00,68.7,48.2,29.66,WNW,287,5.0,14.0,48,0.00,,,0.00,Wunderground v.1.15,2013-07-08 12:58:00,
2013-07-08 06:59:00,68.9,47.8,29.66,West,269,15.0,17.0,47,0.00,,,0.00,Wunderground v.1.15,2013-07-08 12:59:00,
2013-07-08 07:01:00,69.4,47.7,29.66,WNW,299,8.0,14.0,46,0.00,,,0.00,Wunderground v.1.15,2013-07-08 13:01:00,
2013-07-08 07:02:00,69.5,48.4,29.66,ESE,120,7.0,14.0,47,0.00,,,0.00,Wunderground v.1.15,2013-07-08 13:02:00,
2013-07-08 07:03:00,69.7,48.0,29.66,WSW,254,17.0,17.0,46,0.00,,,0.00,Wunderground v.1.15,2013-07-08 13:03:00,
2013-07-08 07:04:00,69.9,48.2,29.66,WSW,254,12.0,18.0,46,0.00,,,0.00,Wunderground v.1.15,2013-07-08 13:04:00,
2013-07-08 07:06:00,70.4,48.0,29.67,West,268,6.0,18.0,45,0.00,,,0.00,Wunderground v.1.15,2013-07-08 13:06:00,
2013-07-08 07:07:00,70.5,48.1,29.67,West,269,8.0,18.0,45,0.00,,,0.00,Wunderground v.1.15,2013-07-08 13:07:00,
2013-07-08 07:08:00,70.6,48.8,29.67,West,273,1.0,18.0,46,0.00,,,0.00,Wunderground v.1.15,2013-07-08 13:08:00,
2013-07-08 07:09:00,70.7,48.3,29.67,West,268,5.0,18.0,45,0.00,,,0.00,Wunderground v.1.15,2013-07-08 13:09:00,
2013-07-08 07:11:00,71.0,48.0,29.66,West,275,4.0,13.0,44,0.00,,,0.00,Wunderground v.1.15,2013-07-08 13:11:00,
2013-07-08 07:12:00,71.1,48.1,29.66,West,270,2.0,13.0,44,0.00,,,0.00,Wunderground v.1.15,2013-07-08 13:12:00,
2013-07-08 07:13:00,71.2,48.2,29.67,North,360,9.0,13.0,44,0.00,,,0.00,Wunderground v.1.15,2013-07-08 13:13:00,
2013-07-08 07:14:00,71.3,48.3,29.66,West,261,3.0,13.0,44,0.00,,,0.00,Wunderground v.1.15,2013-07-08 13:14:00,
2013-07-08 07:16:00,71.6,47.9,29.67,WSW,257,6.0,16.0,43,0.00,,,0.00,Wunderground v.1.15,2013-07-08 13:16:00,
2013-07-08 07:17:00,71.7,48.0,29.67,North,360,7.0,16.0,43,0.00,,,0.00,Wunderground v.1.15,2013-07-08 13:17:00,
2013-07-08 07:18:00,71.7,48.0,29.67,SSW,203,7.0,16.0,43,0.00,,,0.00,Wunderground v.1.15,2013-07-08 13:18:00,
2013-07-08 07:19:00,71.9,48.2,29.67,SSW,205,10.0,16.0,43,0.00,,,0.00,Wunderground v.1.15,2013-07-08 13:19:00,
2013-07-08 07:22:00,72.2,48.5,29.67,SSW,199,7.0,10.0,43,0.00,,,0.00,Wunderground v.1.15,2013-07-08 13:22:00,
2013-07-08 07:23:00,72.2,48.5,29.67,North,360,5.0,10.0,43,0.00,,,0.00,Wunderground v.1.15,2013-07-08 13:23:00,
2013-07-08 07:24:00,72.3,49.2,29.67,SSW,194,9.0,10.0,44,0.00,,,0.00,Wunderground v.1.15,2013-07-08 13:24:00,
2013-07-08 07:25:00,72.4,49.3,29.67,North,360,6.0,10.0,44,0.00,,,0.00,Wunderground v.1.15,2013-07-08 13:25:00,
2013-07-08 07:27:00,72.4,49.3,29.67,WSW,250,4.0,10.0,44,0.00,,,0.00,Wunderground v.1.15,2013-07-08 13:27:00,
2013-07-08 07:28:00,72.5,49.3,29.67,WSW,254,6.0,10.0,44,0.00,,,0.00,Wunderground v.1.15,2013-07-08 13:28:00,
2013-07-08 07:29:00,72.5,48.7,29.67,WSW,255,4.0,10.0,43,0.00,,,0.00,Wunderground v.1.15,2013-07-08 13:29:00,
2013-07-08 07:30:00,72.6,48.8,29.67,North,360,8.0,9.0,43,0.00,,,0.00,Wunderground v.1.15,2013-07-08 13:30:00,
2013-07-08 07:32:00,72.8,48.4,29.67,West,264,0.0,9.0,42,0.00,,,0.00,Wunderground v.1.15,2013-07-08 13:32:00,
2013-07-08 07:33:00,72.8,49.0,29.67,West,265,1.0,9.0,43,0.00,,,0.00,Wunderground v.1.15,2013-07-08 13:33:00,
2013-07-08 07:34:00,73.0,48.5,29.67,West,269,0.0,9.0,42,0.00,,,0.00,Wunderground v.1.15,2013-07-08 13:34:00,
2013-07-08 07:35:00,73.0,48.5,29.67,West,278,3.0,9.0,42,0.00,,,0.00,Wunderground v.1.15,2013-07-08 13:35:00,
2013-07-08 07:37:00,73.3,49.4,29.67,North,355,2.0,9.0,43,0.00,,,0.00,Wunderground v.1.15,2013-07-08 13:37:00,
2013-07-08 07:38:00,-999.9,-99.9,29.67,North,355,1.0,9.0,43,0.00,,,0.00,Wunderground v.1.15,2013-07-08 13:38:00,
2013-07-08 07:40:00,73.5,49.6,29.68,NE,44,6.0,10.0,43,0.00,,,0.00,Wunderground v.1.15,2013-07-08 13:40:00,
2013-07-08 07:43:00,73.6,49.7,29.68,NNE,30,10.0,10.0,43,0.00,,,0.00,Wunderground v.1.15,2013-07-08 13:43:00,
2013-07-08 07:44:00,73.6,49.7,29.68,NNE,19,0.0,10.0,43,0.00,,,0.00,Wunderground v.1.15,2013-07-08 13:44:00,
2013-07-08 07:45:00,73.7,49.8,29.68,NNE,21,6.0,10.0,43,0.00,,,0.00,Wunderground v.1.15,2013-07-08 13:45:00,
2013-07-08 07:46:00,73.7,49.2,29.68,NNE,21,0.0,10.0,42,0.00,,,0.00,Wunderground v.1.15,2013-07-08 13:46:00,
2013-07-08 07:48:00,73.7,49.8,29.68,NE,48,1.0,10.0,43,0.00,,,0.00,Wunderground v.1.15,2013-07-08 13:48:00,
2013-07-08 07:49:00,73.8,49.9,29.68,NE,47,0.0,10.0,43,0.00,,,0.00,Wunderground v.1.15,2013-07-08 13:49:00,
2013-07-08 07:50:00,73.8,49.9,29.68,NE,39,0.0,5.0,43,0.00,,,0.00,Wunderground v.1.15,2013-07-08 13:50:00,
2013-07-08 07:51:00,73.8,49.9,29.68,NE,38,5.0,5.0,43,0.00,,,0.00,Wunderground v.1.15,2013-07-08 13:51:00,
2013-07-08 07:54:00,74.0,50.1,29.68,NE,53,7.0,7.0,43,0.00,,,0.00,Wunderground v.1.15,2013-07-08 13:54:00,
2013-07-08 07:55:00,74.0,50.1,29.68,NE,56,4.0,7.0,43,0.00,,,0.00,Wunderground v.1.15,2013-07-08 13:55:00,
2013-07-08 07:56:00,74.1,50.2,29.68,NE,40,2.0,7.0,43,0.00,,,0.00,Wunderground v.1.15,2013-07-08 13:56:00,
2013-07-08 07:59:00,74.2,49.6,29.68,NE,41,4.0,7.0,42,0.00,,,0.00,Wunderground v.1.15,2013-07-08 13:59:00,
2013-07-08 08:00:00,74.3,49.7,29.68,ENE,64,7.0,7.0,42,0.00,,,0.00,Wunderground v.1.15,2013-07-08 14:00:00,
2013-07-08 08:01:00,74.4,49.8,29.68,ENE,67,4.0,7.0,42,0.00,,,0.00,Wunderground v.1.15,2013-07-08 14:01:00,
2013-07-08 08:02:00,74.4,49.8,29.68,ENE,73,3.0,8.0,42,0.00,,,0.00,Wunderground v.1.15,2013-07-08 14:02:00,
2013-07-08 08:04:00,74.5,49.9,29.69,ENE,75,0.0,8.0,42,0.00,,,0.00,Wunderground v.1.15,2013-07-08 14:04:00,
2013-07-08 08:05:00,74.5,49.9,29.69,ENE,74,0.0,8.0,42,0.00,,,0.00,Wunderground v.1.15,2013-07-08 14:05:00,
2013-07-08 08:06:00,74.6,50.0,29.69,ENE,76,4.0,8.0,42,0.00,,,0.00,Wunderground v.1.15,2013-07-08 14:06:00,
2013-07-08 08:07:00,74.6,50.0,29.69,ENE,78,5.0,8.0,42,0.00,,,0.00,Wunderground v.1.15,2013-07-08 14:07:00,
2013-07-08 08:09:00,74.8,50.2,29.69,East,101,8.0,10.0,42,0.00,,,0.00,Wunderground v.1.15,2013-07-08 14:09:00,
2013-07-08 08:10:00,74.8,50.2,29.69,ESE,102,5.0,5.0,42,0.00,,,0.00,Wunderground v.1.15,2013-07-08 14:10:00,
2013-07-08 08:12:00,74.9,49.6,29.69,East,94,6.0,9.0,41,0.00,,,0.00,Wunderground v.1.15,2013-07-08 14:12:00,
2013-07-08 08:13:00,74.9,49.6,29.69,East,94,2.0,9.0,41,0.00,,,0.00,Wunderground v.1.15,2013-07-08 14:13:00,
2013-07-08 08:15:00,74.9,50.3,29.69,East,95,0.0,9.0,42,0.00,,,0.00,Wunderground v.1.15,2013-07-08 14:15:00,
2013-07-08 08:17:00,75.1,50.4,29.69,East,94,3.0,9.0,42,0.00,,,0.00,Wunderground v.1.15,2013-07-08 14:17:00,
2013-07-08 08:18:00,75.2,50.5,29.69,East,94,0.0,9.0,42,0.00,,,0.00,Wunderground v.1.15,2013-07-08 14:18:00,
2013-07-08 08:20:00,75.4,50.7,29.69,East,94,0.0,3.0,42,0.00,,,0.00,Wunderground v.1.15,2013-07-08 14:20:00,
2013-07-08 08:22:00,75.6,50.9,29.69,East,94,0.0,3.0,42,0.00,,,0.00,Wunderground v.1.15,2013-07-08 14:22:00,
2013-07-08 08:24:00,75.7,51.0,29.69,East,93,6.0,7.0,42,0.00,,,0.00,Wunderground v.1.15,2013-07-08 14:24:00,
2013-07-08 08:25:00,76.0,50.6,29.69,East,92,0.0,7.0,41,0.00,,,0.00,Wunderground v.1.15,2013-07-08 14:25:00,
2013-07-08 08:26:00,76.0,50.6,29.69,East,90,0.0,7.0,41,0.00,,,0.00,Wunderground v.1.15,2013-07-08 14:26:00,
2013-07-08 08:27:00,76.2,50.8,29.69,ENE,77,0.0,7.0,41,0.00,,,0.00,Wunderground v.1.15,2013-07-08 14:27:00,
2013-07-08 08:29:00,76.3,50.9,29.69,ENE,74,1.0,7.0,41,0.00,,,0.00,Wunderground v.1.15,2013-07-08 14:29:00,
2013-07-08 08:30:00,76.5,51.0,29.69,ENE,67,2.0,4.0,41,0.00,,,0.00,Wunderground v.1.15,2013-07-08 14:30:00,
2013-07-08 08:31:00,76.5,51.0,29.69,ENE,67,2.0,4.0,41,0.00,,,0.00,Wunderground v.1.15,2013-07-08 14:31:00,
2013-07-08 08:32:00,76.7,51.2,29.69,ENE,67,4.0,4.0,41,0.00,,,0.00,Wunderground v.1.15,2013-07-08 14:32:00,
2013-07-08 08:34:00,76.9,50.1,29.69,NE,45,5.0,7.0,39,0.00,,,0.00,Wunderground v.1.15,2013-07-08 14:34:00,
2013-07-08 08:36:00,77.1,50.9,29.69,NE,46,0.0,7.0,40,0.00,,,0.00,Wunderground v.1.15,2013-07-08 14:36:00,
2013-07-08 08:38:00,77.4,50.5,29.69,NE,45,0.0,7.0,39,0.00,,,0.00,Wunderground v.1.15,2013-07-08 14:38:00,
2013-07-08 08:39:00,77.6,50.7,29.69,NE,55,5.0,7.0,39,0.00,,,0.00,Wunderground v.1.15,2013-07-08 14:39:00,
2013-07-08 08:41:00,77.9,50.9,29.69,NE,55,0.0,4.0,39,0.00,,,0.00,Wunderground v.1.15,2013-07-08 14:41:00,
2013-07-08 08:43:00,78.1,51.1,29.69,NE,56,2.0,5.0,39,0.00,,,0.00,Wunderground v.1.15,2013-07-08 14:43:00,
2013-07-08 08:45:00,78.4,52.1,29.69,NE,50,5.0,5.0,40,0.00,,,0.00,Wunderground v.1.15,2013-07-08 14:45:00,
2013-07-08 08:46:00,78.5,52.2,29.69,NE,49,1.0,5.0,40,0.00,,,0.00,Wunderground v.1.15,2013-07-08 14:46:00,
2013-07-08 08:47:00,78.7,52.3,29.69,NE,44,2.0,5.0,40,0.00,,,0.00,Wunderground v.1.15,2013-07-08 14:47:00,
2013-07-08 08:48:00,78.7,53.0,29.69,NE,39,5.0,6.0,41,0.00,,,0.00,Wunderground v.1.15,2013-07-08 14:48:00,
2013-07-08 08:50:00,78.8,52.4,29.69,NE,42,5.0,6.0,40,0.00,,,0.00,Wunderground v.1.15,2013-07-08 14:50:00,
2013-07-08 08:51:00,78.8,52.4,29.69,NE,42,3.0,6.0,40,0.00,,,0.00,Wunderground v.1.15,2013-07-08 14:51:00,
2013-07-08 08:52:00,78.7,52.3,29.69,NE,55,3.0,6.0,40,0.00,,,0.00,Wunderground v.1.15,2013-07-08 14:52:00,
2013-07-08 08:53:00,78.7,52.3,29.69,NE,53,1.0,6.0,40,0.00,,,0.00,Wunderground v.1.15,2013-07-08 14:53:00,
2013-07-08 08:55:00,78.7,52.3,29.69,NE,53,0.0,6.0,40,0.00,,,0.00,Wunderground v.1.15,2013-07-08 14:55:00,
2013-07-08 08:56:00,78.7,52.3,29.69,NE,52,1.0,6.0,40,0.00,,,0.00,Wunderground v.1.15,2013-07-08 14:56:00,
2013-07-08 08:57:00,78.8,52.4,29.70,NE,53,2.0,6.0,40,0.00,,,0.00,Wunderground v.1.15,2013-07-08 14:57:00,
2013-07-08 08:58:00,79.0,53.9,29.69,NE,53,2.0,6.0,42,0.00,,,0.00,Wunderground v.1.15,2013-07-08 14:58:00,
2013-07-08 08:59:00,79.1,53.4,29.69,NE,52,0.0,6.0,41,0.00,,,0.00,Wunderground v.1.15,2013-07-08 14:59:00,
2013-07-08 09:00:00,79.2,53.5,29.69,ENE,57,3.0,4.0,41,0.00,,,0.00,Wunderground v.1.15,2013-07-08 15:00:00,
2013-07-08 09:01:00,79.3,52.9,29.69,NE,52,0.0,4.0,40,0.00,,,0.00,Wunderground v.1.15,2013-07-08 15:01:00,
2013-07-08 09:02:00,79.4,53.0,29.69,NE,52,4.0,5.0,40,0.00,,,0.00,Wunderground v.1.15,2013-07-08 15:02:00,
2013-07-08 09:04:00,79.5,53.1,29.69,NE,52,0.0,5.0,40,0.00,,,0.00,Wunderground v.1.15,2013-07-08 15:04:00,
2013-07-08 09:05:00,79.6,53.1,29.69,NE,49,2.0,6.0,40,0.00,,,0.00,Wunderground v.1.15,2013-07-08 15:05:00,
2013-07-08 09:06:00,79.7,52.5,29.69,NE,36,5.0,7.0,39,0.00,,,0.00,Wunderground v.1.15,2013-07-08 15:06:00,
2013-07-08 09:07:00,79.7,54.6,29.69,NNE,30,7.0,8.0,42,0.00,,,0.00,Wunderground v.1.15,2013-07-08 15:07:00,
2013-07-08 09:09:00,79.7,55.9,29.70,NNE,19,7.0,8.0,44,0.00,,,0.00,Wunderground v.1.15,2013-07-08 15:09:00,
2013-07-08 09:10:00,79.7,55.9,29.70,North,360,9.0,11.0,44,0.00,,,0.00,Wunderground v.1.15,2013-07-08 15:10:00,
2013-07-08 09:11:00,79.7,55.9,29.69,North,5,3.0,11.0,44,0.00,,,0.00,Wunderground v.1.15,2013-07-08 15:11:00,
2013-07-08 09:12:00,79.8,55.9,29.69,North,360,9.0,11.0,44,0.00,,,0.00,Wunderground v.1.15,2013-07-08 15:12:00,
2013-07-08 09:14:00,79.6,56.4,29.69,NNE,28,7.0,11.0,45,0.00,,,0.00,Wunderground v.1.15,2013-07-08 15:14:00,
2013-07-08 09:15:00,79.6,56.4,29.69,NNE,28,12.0,12.0,45,0.00,,,0.00,Wunderground v.1.15,2013-07-08 15:15:00,
2013-07-08 09:17:00,79.4,56.2,29.69,ENE,76,7.0,14.0,45,0.00,,,0.00,Wunderground v.1.15,2013-07-08 15:17:00,
2013-07-08 09:20:00,78.9,55.8,29.70,NNE,29,8.0,11.0,45,0.00,,,0.00,Wunderground v.1.15,2013-07-08 15:20:00,
2013-07-08 09:21:00,78.7,55.6,29.69,NNE,15,9.0,11.0,45,0.00,,,0.00,Wunderground v.1.15,2013-07-08 15:21:00,
2013-07-08 09:22:00,78.6,55.5,29.69,NNE,27,9.0,11.0,45,0.00,,,0.00,Wunderground v.1.15,2013-07-08 15:22:00,
2013-07-08 09:25:00,78.4,54.7,29.69,ENE,57,5.0,11.0,44,0.00,,,0.00,Wunderground v.1.15,2013-07-08 15:25:00,
2013-07-08 09:26:00,78.4,55.3,29.69,NNE,30,8.0,11.0,45,0.00,,,0.00,Wunderground v.1.15,2013-07-08 15:26:00,
2013-07-08 09:27:00,78.3,55.2,29.69,NE,34,1.0,11.0,45,0.00,,,0.00,Wunderground v.1.15,2013-07-08 15:27:00,
2013-07-08 09:30:00,78.6,55.5,29.69,NE,52,3.0,7.0,45,0.00,,,0.00,Wunderground v.1.15,2013-07-08 15:30:00,
2013-07-08 09:31:00,78.6,55.5,29.69,NE,51,4.0,7.0,45,0.00,,,0.00,Wunderground v.1.15,2013-07-08 15:31:00,
2013-07-08 09:32:00,78.7,55.0,29.69,NE,49,6.0,7.0,44,0.00,,,0.00,Wunderground v.1.15,2013-07-08 15:32:00,
2013-07-08 09:33:00,78.7,54.3,29.69,NE,38,5.0,7.0,43,0.00,,,0.00,Wunderground v.1.15,2013-07-08 15:33:00,
2013-07-08 09:36:00,79.1,54.0,29.69,NE,38,5.0,7.0,42,0.00,,,0.00,Wunderground v.1.15,2013-07-08 15:36:00,
2013-07-08 09:37:00,79.2,54.1,29.69,NE,42,5.0,7.0,42,0.00,,,0.00,Wunderground v.1.15,2013-07-08 15:37:00,
2013-07-08 09:38:00,79.3,53.6,29.69,NE,46,1.0,7.0,41,0.00,,,0.00,Wunderground v.1.15,2013-07-08 15:38:00,
2013-07-08 09:41:00,79.5,51.7,29.68,North,360,2.0,4.0,38,0.00,,,0.00,Wunderground v.1.15,2013-07-08 15:41:00,
2013-07-08 09:42:00,79.6,52.5,29.69,North,360,4.0,5.0,39,0.00,,,0.00,Wunderground v.1.15,2013-07-08 15:42:00,
2013-07-08 09:43:00,79.9,54.1,29.69,NE,36,3.0,8.0,41,0.00,,,0.00,Wunderground v.1.15,2013-07-08 15:43:00,
2013-07-08 09:46:00,80.4,53.9,29.68,North,360,6.0,8.0,40,0.00,,,0.00,Wunderground v.1.15,2013-07-08 15:46:00,
2013-07-08 09:47:00,80.5,52.6,29.69,NNE,13,2.0,8.0,38,0.00,,,0.00,Wunderground v.1.15,2013-07-08 15:47:00,
2013-07-08 09:49:00,80.9,52.2,29.68,NE,38,8.0,11.0,37,0.00,,,0.00,Wunderground v.1.15,2013-07-08 15:49:00,
2013-07-08 09:51:00,81.1,53.8,29.68,North,5,7.0,12.0,39,0.00,,,0.00,Wunderground v.1.15,2013-07-08 15:51:00,
2013-07-08 09:52:00,81.2,53.2,29.68,North,360,6.0,12.0,38,0.00,,,0.00,Wunderground v.1.15,2013-07-08 15:52:00,
2013-07-08 09:53:00,81.2,53.2,29.68,NE,37,6.0,12.0,38,0.00,,,0.00,Wunderground v.1.15,2013-07-08 15:53:00,
2013-07-08 09:54:00,81.3,53.3,29.68,North,360,12.0,14.0,38,0.00,,,0.00,Wunderground v.1.15,2013-07-08 15:54:00,
2013-07-08 09:56:00,81.4,54.1,29.68,NE,48,2.0,14.0,39,0.00,,,0.00,Wunderground v.1.15,2013-07-08 15:56:00,
2013-07-08 09:57:00,81.6,54.2,29.68,North,360,5.0,14.0,39,0.00,,,0.00,Wunderground v.1.15,2013-07-08 15:57:00,
2013-07-08 09:59:00,81.9,53.8,29.68,North,5,4.0,14.0,38,0.00,,,0.00,Wunderground v.1.15,2013-07-08 15:59:00,
2013-07-08 10:00:00,82.2,56.2,29.68,North,360,0.0,6.0,41,0.00,,,0.00,Wunderground v.1.15,2013-07-08 16:00:00,
2013-07-08 10:01:00,82.5,52.1,29.68,North,5,0.0,6.0,35,0.00,,,0.00,Wunderground v.1.15,2013-07-08 16:01:00,
2013-07-08 10:02:00,82.8,54.6,29.68,North,360,5.0,10.0,38,0.00,,,0.00,Wunderground v.1.15,2013-07-08 16:02:00,
2013-07-08 10:03:00,82.8,54.6,29.68,North,351,8.0,10.0,38,0.00,,,0.00,Wunderground v.1.15,2013-07-08 16:03:00,
2013-07-08 10:04:00,82.9,55.4,29.68,North,360,10.0,12.0,39,0.00,,,0.00,Wunderground v.1.15,2013-07-08 16:04:00,
2013-07-08 10:05:00,82.9,56.1,29.68,NNE,25,8.0,12.0,40,0.00,,,0.00,Wunderground v.1.15,2013-07-08 16:05:00,
2013-07-08 10:07:00,82.9,56.1,29.68,NNE,28,7.0,12.0,40,0.00,,,0.00,Wunderground v.1.15,2013-07-08 16:07:00,
2013-07-08 10:08:00,83.0,55.5,29.68,North,350,2.0,12.0,39,0.00,,,0.00,Wunderground v.1.15,2013-07-08 16:08:00,
2013-07-08 10:09:00,83.0,56.2,29.68,North,360,5.0,12.0,40,0.00,,,0.00,Wunderground v.1.15,2013-07-08 16:09:00,
2013-07-08 10:10:00,83.2,56.4,29.68,NNE,28,6.0,6.0,40,0.00,,,0.00,Wunderground v.1.15,2013-07-08 16:10:00,
2013-07-08 10:12:00,83.2,55.7,29.68,North,360,8.0,12.0,39,0.00,,,0.00,Wunderground v.1.15,2013-07-08 16:12:00,
2013-07-08 10:13:00,83.0,55.5,29.68,North,360,3.0,12.0,39,0.00,,,0.00,Wunderground v.1.15,2013-07-08 16:13:00,
2013-07-08 10:15:00,83.1,55.6,29.68,North,10,6.0,12.0,39,0.00,,,0.00,Wunderground v.1.15,2013-07-08 16:15:00,
2013-07-08 10:17:00,83.2,55.7,29.68,NE,42,7.0,12.0,39,0.00,,,0.00,Wunderground v.1.15,2013-07-08 16:17:00,
2013-07-08 10:18:00,83.0,55.5,29.68,North,360,10.0,12.0,39,0.00,,,0.00,Wunderground v.1.15,2013-07-08 16:18:00,
2013-07-08 10:20:00,82.6,55.1,29.68,North,360,7.0,11.0,39,0.00,,,0.00,Wunderground v.1.15,2013-07-08 16:20:00,
2013-07-08 10:22:00,82.4,55.0,29.68,NNE,13,5.0,11.0,39,0.00,,,0.00,Wunderground v.1.15,2013-07-08 16:22:00,
2013-07-08 10:23:00,82.4,55.0,29.68,North,360,12.0,12.0,39,0.00,,,0.00,Wunderground v.1.15,2013-07-08 16:23:00,
2013-07-08 10:25:00,82.5,55.0,29.68,ENE,60,7.0,12.0,39,0.00,,,0.00,Wunderground v.1.15,2013-07-08 16:25:00,
2013-07-08 10:27:00,82.6,55.1,29.68,ENE,69,7.0,12.0,39,0.00,,,0.00,Wunderground v.1.15,2013-07-08 16:27:00,
2013-07-08 10:28:00,82.6,55.1,29.68,ENE,67,10.0,12.0,39,0.00,,,0.00,Wunderground v.1.15,2013-07-08 16:28:00,
2013-07-08 10:30:00,82.7,55.2,29.68,East,96,9.0,9.0,39,0.00,,,0.00,Wunderground v.1.15,2013-07-08 16:30:00,
2013-07-08 10:31:00,82.8,54.6,29.68,North,360,7.0,9.0,38,0.00,,,0.00,Wunderground v.1.15,2013-07-08 16:31:00,
2013-07-08 10:33:00,83.3,55.0,29.68,North,360,5.0,9.0,38,0.00,,,0.00,Wunderground v.1.15,2013-07-08 16:33:00,
2013-07-08 10:36:00,83.9,55.6,29.68,NE,47,8.0,9.0,38,0.00,,,0.00,Wunderground v.1.15,2013-07-08 16:36:00,
2013-07-08 10:38:00,84.1,55.0,29.68,NE,46,2.0,11.0,37,0.00,,,0.00,Wunderground v.1.15,2013-07-08 16:38:00,
2013-07-08 10:41:00,84.2,55.1,29.68,NE,42,6.0,10.0,37,0.00,,,0.00,Wunderground v.1.15,2013-07-08 16:41:00,
2013-07-08 10:43:00,84.3,55.2,29.68,NE,38,11.0,12.0,37,0.00,,,0.00,Wunderground v.1.15,2013-07-08 16:43:00,
2013-07-08 10:47:00,84.7,55.5,29.68,NNE,27,4.0,12.0,37,0.00,,,0.00,Wunderground v.1.15,2013-07-08 16:47:00,
2013-07-08 10:49:00,84.9,55.0,29.68,North,360,5.0,12.0,36,0.00,,,0.00,Wunderground v.1.15,2013-07-08 16:49:00,
2013-07-08 10:52:00,85.2,54.5,29.68,North,360,8.0,11.0,35,0.00,,,0.00,Wunderground v.1.15,2013-07-08 16:52:00,
2013-07-08 10:54:00,85.2,55.2,29.68,North,360,7.0,11.0,36,0.00,,,0.00,Wunderground v.1.15,2013-07-08 16:54:00,
2013-07-08 10:55:00,85.0,55.1,29.68,North,360,13.0,15.0,36,0.00,,,0.00,Wunderground v.1.15,2013-07-08 16:55:00,
2013-07-08 10:57:00,84.7,54.8,29.68,North,360,9.0,15.0,36,0.00,,,0.00,Wunderground v.1.15,2013-07-08 16:57:00,
2013-07-08 10:59:00,84.4,55.3,29.68,North,5,17.0,21.0,37,0.00,,,0.00,Wunderground v.1.15,2013-07-08 16:59:00,
2013-07-08 11:00:00,84.3,54.4,29.68,NE,44,13.0,13.0,36,0.00,,,0.00,Wunderground v.1.15,2013-07-08 17:00:00,
2013-07-08 11:01:00,83.9,54.8,29.68,ENE,70,8.0,14.0,37,0.00,,,0.00,Wunderground v.1.15,2013-07-08 17:01:00,
2013-07-08 11:03:00,83.6,55.3,29.68,North,5,9.0,16.0,38,0.00,,,0.00,Wunderground v.1.15,2013-07-08 17:03:00,
2013-07-08 11:04:00,83.7,55.4,29.68,North,360,20.0,20.0,38,0.00,,,0.00,Wunderground v.1.15,2013-07-08 17:04:00,
2013-07-08 11:06:00,83.8,55.5,29.68,North,360,9.0,20.0,38,0.00,,,0.00,Wunderground v.1.15,2013-07-08 17:06:00,
2013-07-08 11:08:00,83.8,54.0,29.68,NNW,334,6.0,20.0,36,0.00,,,0.00,Wunderground v.1.15,2013-07-08 17:08:00,
2013-07-08 11:10:00,83.8,54.0,29.68,North,360,13.0,13.0,36,0.00,,,0.00,Wunderground v.1.15,2013-07-08 17:10:00,
2013-07-08 11:11:00,83.8,53.2,29.68,NNE,19,7.0,13.0,35,0.00,,,0.00,Wunderground v.1.15,2013-07-08 17:11:00,
2013-07-08 11:13:00,83.9,54.1,29.68,North,360,11.0,13.0,36,0.00,,,0.00,Wunderground v.1.15,2013-07-08 17:13:00,
2013-07-08 11:16:00,84.0,54.9,29.68,North,360,6.0,13.0,37,0.00,,,0.00,Wunderground v.1.15,2013-07-08 17:16:00,
2013-07-08 11:17:00,84.0,54.9,29.68,North,360,8.0,13.0,37,0.00,,,0.00,Wunderground v.1.15,2013-07-08 17:17:00,
2013-07-08 11:18:00,84.5,54.6,29.68,North,360,5.0,13.0,36,0.00,,,0.00,Wunderground v.1.15,2013-07-08 17:18:00,
2013-07-08 11:19:00,84.7,54.8,29.68,North,360,8.0,13.0,36,0.00,,,0.00,Wunderground v.1.15,2013-07-08 17:19:00,
2013-07-08 11:22:00,85.0,53.5,29.68,North,360,11.0,11.0,34,0.00,,,0.00,Wunderground v.1.15,2013-07-08 17:22:00,
2013-07-08 11:24:00,84.7,53.2,29.68,NE,55,3.0,11.0,34,0.00,,,0.00,Wunderground v.1.15,2013-07-08 17:24:00,
2013-07-08 11:25:00,84.7,54.0,29.68,ENE,78,7.0,11.0,35,0.00,,,0.00,Wunderground v.1.15,2013-07-08 17:25:00,
2013-07-08 11:28:00,84.8,54.1,29.68,North,360,3.0,11.0,35,0.00,,,0.00,Wunderground v.1.15,2013-07-08 17:28:00,
2013-07-08 11:29:00,85.0,54.3,29.68,ENE,60,9.0,11.0,35,0.00,,,0.00,Wunderground v.1.15,2013-07-08 17:29:00,
2013-07-08 11:31:00,85.2,54.5,29.68,North,360,6.0,9.0,35,0.00,,,0.00,Wunderground v.1.15,2013-07-08 17:31:00,
2013-07-08 11:33:00,85.3,53.8,29.68,ENE,74,9.0,14.0,34,0.00,,,0.00,Wunderground v.1.15,2013-07-08 17:33:00,
2013-07-08 11:35:00,85.4,53.8,29.67,North,360,8.0,14.0,34,0.00,,,0.00,Wunderground v.1.15,2013-07-08 17:35:00,
2013-07-08 11:36:00,85.6,54.0,29.68,East,86,6.0,14.0,34,0.00,,,0.00,Wunderground v.1.15,2013-07-08 17:36:00,
2013-07-08 11:38:00,85.9,54.3,29.67,North,360,12.0,14.0,34,0.00,,,0.00,Wunderground v.1.15,2013-07-08 17:38:00,
2013-07-08 11:40:00,85.9,53.5,29.67,North,360,5.0,8.0,33,0.00,,,0.00,Wunderground v.1.15,2013-07-08 17:40:00,
2013-07-08 11:41:00,85.9,53.5,29.67,East,94,9.0,9.0,33,0.00,,,0.00,Wunderground v.1.15,2013-07-08 17:41:00,
2013-07-08 11:45:00,86.1,52.8,29.67,East,96,3.0,9.0,32,0.00,,,0.00,Wunderground v.1.15,2013-07-08 17:45:00,
2013-07-08 11:46:00,86.1,52.8,29.67,ESE,119,5.0,9.0,32,0.00,,,0.00,Wunderground v.1.15,2013-07-08 17:46:00,
2013-07-08 11:47:00,86.3,53.0,29.67,North,360,8.0,9.0,32,0.00,,,0.00,Wunderground v.1.15,2013-07-08 17:47:00,
2013-07-08 11:51:00,87.4,53.1,29.67,North,360,8.0,9.0,31,0.00,,,0.00,Wunderground v.1.15,2013-07-08 17:51:00,
2013-07-08 11:52:00,87.5,53.1,29.67,North,360,6.0,9.0,31,0.00,,,0.00,Wunderground v.1.15,2013-07-08 17:52:00,
2013-07-08 11:53:00,87.5,53.1,29.67,North,360,5.0,9.0,31,0.00,,,0.00,Wunderground v.1.15,2013-07-08 17:53:00,
2013-07-08 11:57:00,87.8,53.4,29.67,North,360,5.0,11.0,31,0.00,,,0.00,Wunderground v.1.15,2013-07-08 17:57:00,
2013-07-08 11:58:00,87.8,53.4,29.67,East,92,6.0,11.0,31,0.00,,,0.00,Wunderground v.1.15,2013-07-08 17:58:00,
2013-07-08 11:59:00,87.9,53.5,29.67,East,101,6.0,11.0,31,0.00,,,0.00,Wunderground v.1.15,2013-07-08 17:59:00,
2013-07-08 12:03:00,88.0,53.6,29.67,ENE,77,4.0,12.0,31,0.00,,,0.00,Wunderground v.1.15,2013-07-08 18:03:00,
2013-07-08 12:05:00,88.1,53.7,29.67,East,94,7.0,12.0,31,0.00,,,0.00,Wunderground v.1.15,2013-07-08 18:05:00,
2013-07-08 12:10:00,87.7,52.4,29.67,North,360,3.0,7.0,30,0.00,,,0.00,Wunderground v.1.15,2013-07-08 18:10:00,
2013-07-08 12:15:00,87.4,52.2,29.67,North,360,5.0,16.0,30,0.00,,,0.00,Wunderground v.1.15,2013-07-08 18:15:00,
2013-07-08 12:16:00,87.5,52.2,29.67,East,82,7.0,16.0,30,0.00,,,0.00,Wunderground v.1.15,2013-07-08 18:16:00,
2013-07-08 12:21:00,87.6,51.4,29.66,NNE,26,9.0,9.0,29,0.00,,,0.00,Wunderground v.1.15,2013-07-08 18:21:00,
2013-07-08 12:23:00,87.4,51.2,29.66,North,360,8.0,11.0,29,0.00,,,0.00,Wunderground v.1.15,2013-07-08 18:23:00,
2013-07-08 12:27:00,87.1,51.0,29.67,North,360,2.0,11.0,29,0.00,,,0.00,Wunderground v.1.15,2013-07-08 18:27:00,
2013-07-08 12:28:00,87.2,52.0,29.67,ENE,63,2.0,11.0,30,0.00,,,0.00,Wunderground v.1.15,2013-07-08 18:28:00,
2013-07-08 12:32:00,87.7,50.6,29.66,East,97,10.0,10.0,28,0.00,,,0.00,Wunderground v.1.15,2013-07-08 18:32:00,
2013-07-08 12:34:00,87.6,50.5,29.66,North,360,13.0,13.0,28,0.00,,,0.00,Wunderground v.1.15,2013-07-08 18:34:00,
2013-07-08 12:38:00,87.2,52.0,29.66,ESE,113,4.0,13.0,30,0.00,,,0.00,Wunderground v.1.15,2013-07-08 18:38:00,
2013-07-08 12:39:00,87.1,51.9,29.66,North,360,7.0,13.0,30,0.00,,,0.00,Wunderground v.1.15,2013-07-08 18:39:00,
2013-07-08 12:41:00,87.1,51.0,29.67,North,360,8.0,9.0,29,0.00,,,0.00,Wunderground v.1.15,2013-07-08 18:41:00,
2013-07-08 12:44:00,86.8,51.6,29.66,ENE,74,4.0,9.0,30,0.00,,,0.00,Wunderground v.1.15,2013-07-08 18:44:00,
2013-07-08 12:45:00,86.9,51.7,29.66,ENE,74,2.0,9.0,30,0.00,,,0.00,Wunderground v.1.15,2013-07-08 18:45:00,
2013-07-08 12:46:00,86.9,51.7,29.66,ENE,75,7.0,9.0,30,0.00,,,0.00,Wunderground v.1.15,2013-07-08 18:46:00,
2013-07-08 12:50:00,87.2,50.1,29.66,North,360,5.0,6.0,28,0.00,,,0.00,Wunderground v.1.15,2013-07-08 18:50:00,
2013-07-08 12:53:00,87.3,51.2,29.66,North,360,2.0,8.0,29,0.00,,,0.00,Wunderground v.1.15,2013-07-08 18:53:00,
2013-07-08 12:55:00,87.6,51.4,29.66,ESE,107,0.0,8.0,29,0.00,,,0.00,Wunderground v.1.15,2013-07-08 18:55:00,
2013-07-08 12:58:00,88.0,50.8,29.66,ESE,108,2.0,8.0,28,0.00,,,0.00,Wunderground v.1.15,2013-07-08 18:58:00,
2013-07-08 13:01:00,88.2,51.0,29.66,South,175,1.0,5.0,28,0.00,,,0.00,Wunderground v.1.15,2013-07-08 19:01:00,
2013-07-08 13:04:00,88.4,51.1,29.66,North,360,4.0,6.0,28,0.00,,,0.00,Wunderground v.1.15,2013-07-08 19:04:00,
2013-07-08 13:05:00,88.5,50.3,29.66,ENE,76,3.0,6.0,27,0.00,,,0.00,Wunderground v.1.15,2013-07-08 19:05:00,
2013-07-08 13:07:00,88.6,50.3,29.66,ENE,78,3.0,6.0,27,0.00,,,0.00,Wunderground v.1.15,2013-07-08 19:07:00,
2013-07-08 13:09:00,88.5,50.3,29.66,East,80,2.0,6.0,27,0.00,,,0.00,Wunderground v.1.15,2013-07-08 19:09:00,
2013-07-08 13:10:00,88.5,50.3,29.66,East,82,5.0,5.0,27,0.00,,,0.00,Wunderground v.1.15,2013-07-08 19:10:00,
2013-07-08 13:12:00,88.6,50.3,29.65,North,360,5.0,8.0,27,0.00,,,0.00,Wunderground v.1.15,2013-07-08 19:12:00,
2013-07-08 13:14:00,88.6,49.3,29.65,North,360,5.0,8.0,26,0.00,,,0.00,Wunderground v.1.15,2013-07-08 19:14:00,
2013-07-08 13:16:00,88.4,49.2,29.65,North,360,2.0,8.0,26,0.00,,,0.00,Wunderground v.1.15,2013-07-08 19:16:00,
2013-07-08 13:20:00,88.2,50.0,29.65,East,94,7.0,7.0,27,0.00,,,0.00,Wunderground v.1.15,2013-07-08 19:20:00,
2013-07-08 13:22:00,88.1,49.9,29.65,East,94,3.0,7.0,27,0.00,,,0.00,Wunderground v.1.15,2013-07-08 19:22:00,
2013-07-08 13:25:00,88.1,49.9,29.65,East,94,3.0,7.0,27,0.00,,,0.00,Wunderground v.1.15,2013-07-08 19:25:00,
2013-07-08 13:29:00,88.4,50.2,29.65,East,93,6.0,7.0,27,0.00,,,0.00,Wunderground v.1.15,2013-07-08 19:29:00,
2013-07-08 13:31:00,88.6,49.3,29.65,North,360,6.0,6.0,26,0.00,,,0.00,Wunderground v.1.15,2013-07-08 19:31:00,
2013-07-08 13:35:00,88.5,48.2,29.65,ENE,75,7.0,7.0,25,0.00,,,0.00,Wunderground v.1.15,2013-07-08 19:35:00,
2013-07-08 13:36:00,88.5,48.2,29.65,ENE,74,4.0,7.0,25,0.00,,,0.00,Wunderground v.1.15,2013-07-08 19:36:00,
2013-07-08 13:40:00,88.4,49.2,29.65,ENE,76,5.0,5.0,26,0.00,,,0.00,Wunderground v.1.15,2013-07-08 19:40:00,
2013-07-08 13:41:00,88.4,48.1,29.65,North,360,0.0,7.0,25,0.00,,,0.00,Wunderground v.1.15,2013-07-08 19:41:00,
2013-07-08 13:46:00,88.9,49.6,29.65,North,360,1.0,7.0,26,0.00,,,0.00,Wunderground v.1.15,2013-07-08 19:46:00,
2013-07-08 13:48:00,89.0,48.6,29.65,ENE,72,0.0,7.0,25,0.00,,,0.00,Wunderground v.1.15,2013-07-08 19:48:00,
2013-07-08 13:52:00,89.2,48.8,29.65,ENE,74,0.0,7.0,25,0.00,,,0.00,Wunderground v.1.15,2013-07-08 19:52:00,
2013-07-08 13:53:00,89.1,49.7,29.65,ENE,76,7.0,7.0,26,0.00,,,0.00,Wunderground v.1.15,2013-07-08 19:53:00,
2013-07-08 13:58:00,89.0,49.7,29.64,East,82,6.0,7.0,26,0.00,,,0.00,Wunderground v.1.15,2013-07-08 19:58:00,
2013-07-08 13:59:00,89.0,49.7,29.65,East,84,1.0,7.0,26,0.00,,,0.00,Wunderground v.1.15,2013-07-08 19:59:00,
2013-07-08 14:03:00,89.1,49.7,29.64,East,85,3.0,7.0,26,0.00,,,0.00,Wunderground v.1.15,2013-07-08 20:03:00,
2013-07-08 14:04:00,89.2,49.8,29.64,East,84,0.0,7.0,26,0.00,,,0.00,Wunderground v.1.15,2013-07-08 20:04:00,
2013-07-08 14:09:00,89.2,48.8,29.64,North,360,3.0,7.0,25,0.00,,,0.00,Wunderground v.1.15,2013-07-08 20:09:00,
2013-07-08 14:11:00,89.0,48.6,29.64,North,360,2.0,5.0,25,0.00,,,0.00,Wunderground v.1.15,2013-07-08 20:11:00,
2013-07-08 14:15:00,89.2,48.8,29.64,East,80,3.0,7.0,25,0.00,,,0.00,Wunderground v.1.15,2013-07-08 20:15:00,
2013-07-08 14:19:00,89.5,49.0,29.64,East,80,3.0,7.0,25,0.00,,,0.00,Wunderground v.1.15,2013-07-08 20:19:00,
2013-07-08 14:22:00,89.6,49.1,29.64,North,360,2.0,5.0,25,0.00,,,0.00,Wunderground v.1.15,2013-07-08 20:22:00,
2013-07-08 14:24:00,89.7,49.2,29.64,North,360,7.0,9.0,25,0.00,,,0.00,Wunderground v.1.15,2013-07-08 20:24:00,
2013-07-08 14:27:00,89.7,50.3,29.64,North,360,3.0,9.0,26,0.00,,,0.00,Wunderground v.1.15,2013-07-08 20:27:00,
2013-07-08 14:30:00,89.9,49.4,29.64,East,98,2.0,5.0,25,0.00,,,0.00,Wunderground v.1.15,2013-07-08 20:30:00,
2013-07-08 14:33:00,90.6,48.9,29.64,East,101,5.0,5.0,24,0.00,,,0.00,Wunderground v.1.15,2013-07-08 20:33:00,
2013-07-08 14:34:00,90.6,48.9,29.64,ESE,102,4.0,6.0,24,0.00,,,0.00,Wunderground v.1.15,2013-07-08 20:34:00,
2013-07-08 14:37:00,90.7,48.9,29.64,ESE,102,1.0,6.0,24,0.00,,,0.00,Wunderground v.1.15,2013-07-08 20:37:00,
2013-07-08 14:40:00,90.4,48.7,29.63,North,360,6.0,10.0,24,0.00,,,0.00,Wunderground v.1.15,2013-07-08 20:40:00,
2013-07-08 14:42:00,90.1,48.4,29.63,ESE,107,0.0,10.0,24,0.00,,,0.00,Wunderground v.1.15,2013-07-08 20:42:00,
2013-07-08 14:45:00,90.2,48.5,29.63,ENE,78,5.0,10.0,24,0.00,,,0.00,Wunderground v.1.15,2013-07-08 20:45:00,
2013-07-08 14:49:00,90.7,48.9,29.63,East,80,0.0,10.0,24,0.00,,,0.00,Wunderground v.1.15,2013-07-08 20:49:00,
2013-07-08 14:51:00,90.9,49.1,29.63,East,80,1.0,5.0,24,0.00,,,0.00,Wunderground v.1.15,2013-07-08 20:51:00,
2013-07-08 14:52:00,91.0,49.2,29.63,East,81,1.0,5.0,24,0.00,,,0.00,Wunderground v.1.15,2013-07-08 20:52:00,
2013-07-08 14:54:00,91.4,49.5,29.63,East,80,0.0,5.0,24,0.00,,,0.00,Wunderground v.1.15,2013-07-08 20:54:00,
2013-07-08 14:56:00,91.6,49.7,29.63,East,80,0.0,5.0,24,0.00,,,0.00,Wunderground v.1.15,2013-07-08 20:56:00,
2013-07-08 14:58:00,91.7,49.8,29.63,East,80,6.0,6.0,24,0.00,,,0.00,Wunderground v.1.15,2013-07-08 20:58:00,
2013-07-08 15:00:00,91.7,48.6,29.63,East,80,0.0,1.0,23,0.00,,,0.00,Wunderground v.1.15,2013-07-08 21:00:00,
2013-07-08 15:01:00,91.7,48.6,29.63,North,360,9.0,9.0,23,0.00,,,0.00,Wunderground v.1.15,2013-07-08 21:01:00,
2013-07-08 15:03:00,91.5,48.5,29.63,ESE,103,9.0,10.0,23,0.00,,,0.00,Wunderground v.1.15,2013-07-08 21:03:00,
2013-07-08 15:05:00,91.2,49.4,29.63,North,360,7.0,11.0,24,0.00,,,0.00,Wunderground v.1.15,2013-07-08 21:05:00,
2013-07-08 15:08:00,90.8,49.0,29.63,ESE,111,5.0,11.0,24,0.00,,,0.00,Wunderground v.1.15,2013-07-08 21:08:00,
2013-07-08 15:09:00,90.7,48.9,29.63,ESE,110,4.0,11.0,24,0.00,,,0.00,Wunderground v.1.15,2013-07-08 21:09:00,
2013-07-08 15:10:00,90.6,48.9,29.63,ESE,105,8.0,8.0,24,0.00,,,0.00,Wunderground v.1.15,2013-07-08 21:10:00,
2013-07-08 15:14:00,90.1,48.4,29.62,North,360,8.0,8.0,24,0.00,,,0.00,Wunderground v.1.15,2013-07-08 21:14:00,
2013-07-08 15:16:00,89.9,48.3,29.62,SE,132,6.0,8.0,24,0.00,,,0.00,Wunderground v.1.15,2013-07-08 21:16:00,
2013-07-08 15:19:00,89.9,49.4,29.62,North,360,0.0,8.0,25,0.00,,,0.00,Wunderground v.1.15,2013-07-08 21:19:00,
2013-07-08 15:21:00,89.8,48.2,29.62,North,360,10.0,12.0,24,0.00,,,0.00,Wunderground v.1.15,2013-07-08 21:21:00,
2013-07-08 15:24:00,89.5,47.9,29.62,East,101,7.0,13.0,24,0.00,,,0.00,Wunderground v.1.15,2013-07-08 21:24:00,
2013-07-08 15:25:00,89.5,47.9,29.62,East,100,0.0,13.0,24,0.00,,,0.00,Wunderground v.1.15,2013-07-08 21:25:00,
2013-07-08 15:26:00,89.5,46.8,29.62,East,99,5.0,13.0,23,0.00,,,0.00,Wunderground v.1.15,2013-07-08 21:26:00,
2013-07-08 15:31:00,89.7,47.0,29.62,East,100,0.0,5.0,23,0.00,,,0.00,Wunderground v.1.15,2013-07-08 21:31:00,
2013-07-08 15:32:00,89.8,47.1,29.62,East,99,0.0,5.0,23,0.00,,,0.00,Wunderground v.1.15,2013-07-08 21:32:00,
2013-07-08 15:36:00,90.1,49.5,29.62,NE,44,3.0,5.0,25,0.00,,,0.00,Wunderground v.1.15,2013-07-08 21:36:00,
2013-07-08 15:39:00,90.3,49.7,29.62,North,355,4.0,7.0,25,0.00,,,0.00,Wunderground v.1.15,2013-07-08 21:39:00,
2013-07-08 15:40:00,90.3,49.7,29.62,North,360,7.0,7.0,25,0.00,,,0.00,Wunderground v.1.15,2013-07-08 21:40:00,
2013-07-08 15:41:00,90.3,49.7,29.62,NNE,13,0.0,11.0,25,0.00,,,0.00,Wunderground v.1.15,2013-07-08 21:41:00,
2013-07-08 15:45:00,90.2,49.6,29.62,North,360,6.0,11.0,25,0.00,,,0.00,Wunderground v.1.15,2013-07-08 21:45:00,
2013-07-08 15:48:00,89.9,49.4,29.62,North,360,3.0,11.0,25,0.00,,,0.00,Wunderground v.1.15,2013-07-08 21:48:00,
2013-07-08 15:51:00,89.6,48.0,29.62,North,10,0.0,5.0,24,0.00,,,0.00,Wunderground v.1.15,2013-07-08 21:51:00,
2013-07-08 15:53:00,89.4,48.9,29.62,North,360,5.0,10.0,25,0.00,,,0.00,Wunderground v.1.15,2013-07-08 21:53:00,
2013-07-08 15:56:00,89.3,47.8,29.61,North,355,7.0,14.0,24,0.00,,,0.00,Wunderground v.1.15,2013-07-08 21:56:00,
2013-07-08 15:59:00,89.3,47.8,29.61,North,360,5.0,14.0,24,0.00,,,0.00,Wunderground v.1.15,2013-07-08 21:59:00,
2013-07-08 16:03:00,89.6,49.1,29.62,NNW,341,5.0,7.0,25,0.00,,,0.00,Wunderground v.1.15,2013-07-08 22:03:00,
2013-07-08 16:04:00,89.6,48.0,29.62,North,360,8.0,12.0,24,0.00,,,0.00,Wunderground v.1.15,2013-07-08 22:04:00,
2013-07-08 16:05:00,89.6,48.0,29.62,North,360,9.0,12.0,24,0.00,,,0.00,Wunderground v.1.15,2013-07-08 22:05:00,
2013-07-08 16:09:00,89.5,49.0,29.62,North,360,9.0,15.0,25,0.00,,,0.00,Wunderground v.1.15,2013-07-08 22:09:00,
2013-07-08 16:12:00,89.4,48.9,29.62,North,355,9.0,14.0,25,0.00,,,0.00,Wunderground v.1.15,2013-07-08 22:12:00,
2013-07-08 16:14:00,89.2,48.8,29.62,North,360,12.0,15.0,25,0.00,,,0.00,Wunderground v.1.15,2013-07-08 22:14:00,
2013-07-08 16:18:00,88.8,48.4,29.62,North,360,13.0,17.0,25,0.00,,,0.00,Wunderground v.1.15,2013-07-08 22:18:00,
2013-07-08 16:20:00,88.3,48.0,29.62,NNE,24,7.0,10.0,25,0.00,,,0.00,Wunderground v.1.15,2013-07-08 22:20:00,
2013-07-08 16:24:00,88.5,48.2,29.62,North,360,7.0,14.0,25,0.00,,,0.00,Wunderground v.1.15,2013-07-08 22:24:00,
2013-07-08 16:25:00,88.6,48.3,29.62,North,360,9.0,14.0,25,0.00,,,0.00,Wunderground v.1.15,2013-07-08 22:25:00,
2013-07-08 16:26:00,88.8,48.4,29.62,North,360,10.0,14.0,25,0.00,,,0.00,Wunderground v.1.15,2013-07-08 22:26:00,
2013-07-08 16:30:00,88.9,48.5,29.61,North,360,15.0,15.0,25,0.00,,,0.00,Wunderground v.1.15,2013-07-08 22:30:00,
2013-07-08 16:31:00,88.8,49.5,29.61,North,360,6.0,15.0,26,0.00,,,0.00,Wunderground v.1.15,2013-07-08 22:31:00,
2013-07-08 16:34:00,88.6,47.2,29.61,NNE,17,5.0,15.0,24,0.00,,,0.00,Wunderground v.1.15,2013-07-08 22:34:00,
2013-07-08 16:36:00,88.5,47.1,29.62,North,360,8.0,15.0,24,0.00,,,0.00,Wunderground v.1.15,2013-07-08 22:36:00,
2013-07-08 16:37:00,88.4,47.0,29.62,North,360,12.0,15.0,24,0.00,,,0.00,Wunderground v.1.15,2013-07-08 22:37:00,
2013-07-08 16:39:00,88.2,46.8,29.61,North,360,12.0,15.0,24,0.00,,,0.00,Wunderground v.1.15,2013-07-08 22:39:00,
2013-07-08 16:42:00,87.5,47.3,29.62,North,360,10.0,14.0,25,0.00,,,0.00,Wunderground v.1.15,2013-07-08 22:42:00,
2013-07-08 16:44:00,87.2,46.0,29.61,North,360,8.0,16.0,24,0.00,,,0.00,Wunderground v.1.15,2013-07-08 22:44:00,
2013-07-08 16:48:00,86.8,46.8,29.61,NE,37,7.0,16.0,25,0.00,,,0.00,Wunderground v.1.15,2013-07-08 22:48:00,
2013-07-08 16:50:00,86.7,46.7,29.61,North,360,6.0,9.0,25,0.00,,,0.00,Wunderground v.1.15,2013-07-08 22:50:00,
2013-07-08 16:51:00,86.6,46.6,29.61,North,360,6.0,9.0,25,0.00,,,0.00,Wunderground v.1.15,2013-07-08 22:51:00,
2013-07-08 16:54:00,86.4,47.5,29.61,North,360,7.0,10.0,26,0.00,,,0.00,Wunderground v.1.15,2013-07-08 22:54:00,
2013-07-08 16:55:00,86.3,46.3,29.61,North,360,5.0,11.0,25,0.00,,,0.00,Wunderground v.1.15,2013-07-08 22:55:00,
2013-07-08 16:57:00,86.4,47.5,29.62,North,360,4.0,11.0,26,0.00,,,0.00,Wunderground v.1.15,2013-07-08 22:57:00,
2013-07-08 16:59:00,86.4,47.5,29.62,North,360,4.0,11.0,26,0.00,,,0.00,Wunderground v.1.15,2013-07-08 22:59:00,
2013-07-08 17:00:00,86.4,47.5,29.62,North,360,4.0,8.0,26,0.00,,,0.00,Wunderground v.1.15,2013-07-08 23:00:00,
2013-07-08 17:03:00,86.4,47.5,29.62,NE,46,6.0,8.0,26,0.00,,,0.00,Wunderground v.1.15,2013-07-08 23:03:00,
2013-07-08 17:05:00,86.3,46.3,29.62,North,355,2.0,11.0,25,0.00,,,0.00,Wunderground v.1.15,2013-07-08 23:05:00,
2013-07-08 17:08:00,86.5,46.5,29.62,NNE,16,3.0,11.0,25,0.00,,,0.00,Wunderground v.1.15,2013-07-08 23:08:00,
2013-07-08 17:10:00,86.6,46.6,29.62,NE,42,4.0,5.0,25,0.00,,,0.00,Wunderground v.1.15,2013-07-08 23:10:00,
2013-07-08 17:11:00,86.6,46.6,29.62,North,360,7.0,8.0,25,0.00,,,0.00,Wunderground v.1.15,2013-07-08 23:11:00,
2013-07-08 17:13:00,86.7,46.7,29.62,North,360,8.0,11.0,25,0.00,,,0.00,Wunderground v.1.15,2013-07-08 23:13:00,
2013-07-08 17:15:00,86.7,46.7,29.62,North,360,1.0,11.0,25,0.00,,,0.00,Wunderground v.1.15,2013-07-08 23:15:00,
2013-07-08 17:16:00,86.7,46.7,29.62,North,360,5.0,11.0,25,0.00,,,0.00,Wunderground v.1.15,2013-07-08 23:16:00,
2013-07-08 17:19:00,86.8,46.8,29.62,North,360,7.0,11.0,25,0.00,,,0.00,Wunderground v.1.15,2013-07-08 23:19:00,
2013-07-08 17:21:00,86.8,46.8,29.62,NNE,16,8.0,9.0,25,0.00,,,0.00,Wunderground v.1.15,2013-07-08 23:21:00,
2013-07-08 17:22:00,86.7,46.7,29.62,North,360,8.0,10.0,25,0.00,,,0.00,Wunderground v.1.15,2013-07-08 23:22:00,
2013-07-08 17:25:00,86.5,46.5,29.62,North,360,9.0,10.0,25,0.00,,,0.00,Wunderground v.1.15,2013-07-08 23:25:00,
2013-07-08 17:27:00,86.4,46.4,29.62,North,360,5.0,10.0,25,0.00,,,0.00,Wunderground v.1.15,2013-07-08 23:27:00,
2013-07-08 17:28:00,86.4,46.4,29.62,North,360,7.0,10.0,25,0.00,,,0.00,Wunderground v.1.15,2013-07-08 23:28:00,
2013-07-08 17:30:00,86.2,47.3,29.62,ENE,58,7.0,8.0,26,0.00,,,0.00,Wunderground v.1.15,2013-07-08 23:30:00,
2013-07-08 17:33:00,86.2,47.3,29.62,North,360,2.0,8.0,26,0.00,,,0.00,Wunderground v.1.15,2013-07-08 23:33:00,
2013-07-08 17:34:00,86.2,47.3,29.62,North,360,8.0,9.0,26,0.00,,,0.00,Wunderground v.1.15,2013-07-08 23:34:00,
2013-07-08 17:35:00,86.2,47.3,29.62,North,360,6.0,9.0,26,0.00,,,0.00,Wunderground v.1.15,2013-07-08 23:35:00,
2013-07-08 17:38:00,86.2,47.3,29.62,North,360,2.0,9.0,26,0.00,,,0.00,Wunderground v.1.15,2013-07-08 23:38:00,
2013-07-08 17:40:00,86.3,47.4,29.62,North,360,1.0,9.0,26,0.00,,,0.00,Wunderground v.1.15,2013-07-08 23:40:00,
2013-07-08 17:42:00,86.4,48.5,29.62,NNE,23,5.0,9.0,27,0.00,,,0.00,Wunderground v.1.15,2013-07-08 23:42:00,
2013-07-08 17:45:00,86.5,47.5,29.62,North,360,0.0,9.0,26,0.00,,,0.00,Wunderground v.1.15,2013-07-08 23:45:00,
2013-07-08 17:47:00,86.7,47.7,29.62,North,360,8.0,9.0,26,0.00,,,0.00,Wunderground v.1.15,2013-07-08 23:47:00,
2013-07-08 17:49:00,86.8,47.8,29.62,NE,37,6.0,9.0,26,0.00,,,0.00,Wunderground v.1.15,2013-07-08 23:49:00,
2013-07-08 17:51:00,86.9,47.9,29.62,North,360,4.0,7.0,26,0.00,,,0.00,Wunderground v.1.15,2013-07-08 23:51:00,
2013-07-08 17:53:00,86.9,47.9,29.62,NNE,26,8.0,10.0,26,0.00,,,0.00,Wunderground v.1.15,2013-07-08 23:53:00,
2013-07-08 17:55:00,86.9,47.9,29.62,North,360,11.0,12.0,26,0.00,,,0.00,Wunderground v.1.15,2013-07-08 23:55:00,
2013-07-08 17:59:00,86.4,48.5,29.63,North,360,4.0,15.0,27,0.00,,,0.00,Wunderground v.1.15,2013-07-08 23:59:00,
2013-07-08 18:01:00,86.3,49.4,29.62,North,360,0.0,7.0,28,0.00,,,0.00,Wunderground v.1.15,2013-07-09 00:01:00,
2013-07-08 18:06:00,85.9,49.0,29.62,North,360,7.0,10.0,28,0.00,,,0.00,Wunderground v.1.15,2013-07-09 00:06:00,
2013-07-08 18:11:00,85.7,49.8,29.62,NE,39,8.0,9.0,29,0.00,,,0.00,Wunderground v.1.15,2013-07-09 00:11:00,
2013-07-08 18:12:00,85.7,49.8,29.62,North,360,5.0,9.0,29,0.00,,,0.00,Wunderground v.1.15,2013-07-09 00:12:00,
2013-07-08 18:17:00,85.9,50.0,29.62,North,360,3.0,9.0,29,0.00,,,0.00,Wunderground v.1.15,2013-07-09 00:17:00,
2013-07-08 18:19:00,85.9,50.0,29.62,North,360,1.0,9.0,29,0.00,,,0.00,Wunderground v.1.15,2013-07-09 00:19:00,
2013-07-08 18:23:00,86.2,50.2,29.63,North,360,6.0,9.0,29,0.00,,,0.00,Wunderground v.1.15,2013-07-09 00:23:00,
2013-07-08 18:24:00,86.2,50.2,29.63,North,360,5.0,9.0,29,0.00,,,0.00,Wunderground v.1.15,2013-07-09 00:24:00,
2013-07-08 18:29:00,86.1,50.1,29.63,North,360,4.0,10.0,29,0.00,,,0.00,Wunderground v.1.15,2013-07-09 00:29:00,
2013-07-08 18:35:00,86.0,51.0,29.63,North,360,0.0,10.0,30,0.00,,,0.00,Wunderground v.1.15,2013-07-09 00:35:00,
2013-07-08 18:36:00,86.0,51.0,29.63,North,360,1.0,10.0,30,0.00,,,0.00,Wunderground v.1.15,2013-07-09 00:36:00,
2013-07-08 18:40:00,86.0,50.0,29.63,North,360,6.0,6.0,29,0.00,,,0.00,Wunderground v.1.15,2013-07-09 00:40:00,
2013-07-08 18:42:00,86.0,50.0,29.63,North,360,6.0,8.0,29,0.00,,,0.00,Wunderground v.1.15,2013-07-09 00:42:00,
2013-07-08 18:45:00,85.9,49.0,29.63,NE,42,4.0,8.0,28,0.00,,,0.00,Wunderground v.1.15,2013-07-09 00:45:00,
2013-07-08 18:47:00,85.9,50.0,29.63,North,360,3.0,8.0,29,0.00,,,0.00,Wunderground v.1.15,2013-07-09 00:47:00,
2013-07-08 18:49:00,85.8,49.9,29.63,North,360,6.0,8.0,29,0.00,,,0.00,Wunderground v.1.15,2013-07-09 00:49:00,
2013-07-08 18:50:00,85.8,49.9,29.63,North,360,1.0,4.0,29,0.00,,,0.00,Wunderground v.1.15,2013-07-09 00:50:00,
2013-07-08 18:53:00,85.8,50.8,29.63,North,360,0.0,4.0,30,0.00,,,0.00,Wunderground v.1.15,2013-07-09 00:53:00,
2013-07-08 18:54:00,85.8,50.8,29.63,North,360,5.0,5.0,30,0.00,,,0.00,Wunderground v.1.15,2013-07-09 00:54:00,
2013-07-08 18:57:00,85.7,49.8,29.63,North,360,2.0,5.0,29,0.00,,,0.00,Wunderground v.1.15,2013-07-09 00:57:00,
2013-07-08 18:59:00,85.7,49.8,29.63,North,360,1.0,5.0,29,0.00,,,0.00,Wunderground v.1.15,2013-07-09 00:59:00,
2013-07-08 19:02:00,85.7,49.8,29.63,North,360,4.0,5.0,29,0.00,,,0.00,Wunderground v.1.15,2013-07-09 01:02:00,
2013-07-08 19:04:00,85.7,48.8,29.63,North,360,0.0,7.0,28,0.00,,,0.00,Wunderground v.1.15,2013-07-09 01:04:00,
2013-07-08 19:09:00,85.6,49.7,29.63,North,360,2.0,7.0,29,0.00,,,0.00,Wunderground v.1.15,2013-07-09 01:09:00,
2013-07-08 19:10:00,85.6,49.7,29.63,North,360,0.0,2.0,29,0.00,,,0.00,Wunderground v.1.15,2013-07-09 01:10:00,
2013-07-08 19:12:00,85.6,49.7,29.63,North,360,0.0,2.0,29,0.00,,,0.00,Wunderground v.1.15,2013-07-09 01:12:00,
2013-07-08 19:14:00,85.7,49.8,29.63,North,360,0.0,2.0,29,0.00,,,0.00,Wunderground v.1.15,2013-07-09 01:14:00,
2013-07-08 19:16:00,85.7,49.8,29.63,North,360,0.0,2.0,29,0.00,,,0.00,Wunderground v.1.15,2013-07-09 01:16:00,
2013-07-08 19:17:00,85.7,49.8,29.63,North,360,0.0,2.0,29,0.00,,,0.00,Wunderground v.1.15,2013-07-09 01:17:00,
2013-07-08 19:20:00,85.7,49.8,29.63,North,360,0.0,0.0,29,0.00,,,0.00,Wunderground v.1.15,2013-07-09 01:20:00,
2013-07-08 19:22:00,85.7,50.7,29.63,North,360,0.0,0.0,30,0.00,,,0.00,Wunderground v.1.15,2013-07-09 01:22:00,
2013-07-08 19:24:00,85.7,49.8,29.63,North,360,1.0,1.0,29,0.00,,,0.00,Wunderground v.1.15,2013-07-09 01:24:00,
2013-07-08 19:25:00,85.7,49.8,29.63,North,360,0.0,2.0,29,0.00,,,0.00,Wunderground v.1.15,2013-07-09 01:25:00,
2013-07-08 19:29:00,85.7,49.8,29.63,North,360,0.0,2.0,29,0.00,,,0.00,Wunderground v.1.15,2013-07-09 01:29:00,
2013-07-08 19:30:00,85.7,49.8,29.63,North,360,0.0,0.0,29,0.00,,,0.00,Wunderground v.1.15,2013-07-09 01:30:00,
2013-07-08 19:31:00,85.7,49.8,29.63,North,360,0.0,0.0,29,0.00,,,0.00,Wunderground v.1.15,2013-07-09 01:31:00,
2013-07-08 19:35:00,85.7,49.8,29.63,North,360,0.0,0.0,29,0.00,,,0.00,Wunderground v.1.15,2013-07-09 01:35:00,
2013-07-08 19:38:00,85.7,49.8,29.63,North,360,0.0,0.0,29,0.00,,,0.00,Wunderground v.1.15,2013-07-09 01:38:00,
2013-07-08 19:40:00,85.7,49.8,29.63,North,360,0.0,0.0,29,0.00,,,0.00,Wunderground v.1.15,2013-07-09 01:40:00,
2013-07-08 19:43:00,85.7,49.8,29.63,North,360,0.0,0.0,29,0.00,,,0.00,Wunderground v.1.15,2013-07-09 01:43:00,
2013-07-08 19:44:00,85.6,49.7,29.63,North,360,2.0,2.0,29,0.00,,,0.00,Wunderground v.1.15,2013-07-09 01:44:00,
2013-07-08 19:47:00,85.5,51.4,29.63,North,360,2.0,2.0,31,0.00,,,0.00,Wunderground v.1.15,2013-07-09 01:47:00,
2013-07-08 19:51:00,84.7,50.7,29.63,North,360,1.0,1.0,31,0.00,,,0.00,Wunderground v.1.15,2013-07-09 01:51:00,
2013-07-08 19:52:00,84.3,51.2,29.63,North,360,0.0,2.0,32,0.00,,,0.00,Wunderground v.1.15,2013-07-09 01:52:00,
2013-07-08 19:56:00,83.3,51.2,29.63,North,360,0.0,2.0,33,0.00,,,0.00,Wunderground v.1.15,2013-07-09 01:56:00,
2013-07-08 19:57:00,82.9,50.8,29.63,North,360,0.0,2.0,33,0.00,,,0.00,Wunderground v.1.15,2013-07-09 01:57:00,
2013-07-08 20:01:00,82.4,51.2,29.64,North,360,0.0,0.0,34,0.00,,,0.00,Wunderground v.1.15,2013-07-09 02:01:00,
2013-07-08 20:03:00,82.2,51.0,29.64,North,360,0.0,0.0,34,0.00,,,0.00,Wunderground v.1.15,2013-07-09 02:03:00,
2013-07-08 20:05:00,82.0,50.9,29.64,North,360,0.0,0.0,34,0.00,,,0.00,Wunderground v.1.15,2013-07-09 02:05:00,
2013-07-08 20:07:00,81.8,51.5,29.64,North,360,0.0,2.0,35,0.00,,,0.00,Wunderground v.1.15,2013-07-09 02:07:00,
2013-07-08 20:10:00,81.4,49.5,29.64,North,360,1.0,1.0,33,0.00,,,0.00,Wunderground v.1.15,2013-07-09 02:10:00,
2013-07-08 20:12:00,81.1,50.1,29.64,North,360,0.0,1.0,34,0.00,,,0.00,Wunderground v.1.15,2013-07-09 02:12:00,
2013-07-08 20:15:00,80.9,49.9,29.64,North,360,0.0,1.0,34,0.00,,,0.00,Wunderground v.1.15,2013-07-09 02:15:00,
2013-07-08 20:16:00,80.8,49.8,29.64,North,360,0.0,1.0,34,0.00,,,0.00,Wunderground v.1.15,2013-07-09 02:16:00,
2013-07-08 20:19:00,80.6,49.6,29.64,North,360,0.0,1.0,34,0.00,,,0.00,Wunderground v.1.15,2013-07-09 02:19:00,
2013-07-08 20:21:00,80.5,50.3,29.64,North,360,0.0,0.0,35,0.00,,,0.00,Wunderground v.1.15,2013-07-09 02:21:00,
2013-07-08 20:23:00,80.3,50.1,29.64,NNE,28,0.0,0.0,35,0.00,,,0.00,Wunderground v.1.15,2013-07-09 02:23:00,
2013-07-08 20:27:00,79.6,49.5,29.64,North,360,0.0,0.0,35,0.00,,,0.00,Wunderground v.1.15,2013-07-09 02:27:00,
2013-07-08 20:28:00,79.4,50.1,29.64,North,360,2.0,2.0,36,0.00,,,0.00,Wunderground v.1.15,2013-07-09 02:28:00,
2013-07-08 20:33:00,78.5,50.1,29.64,North,360,2.0,3.0,37,0.00,,,0.00,Wunderground v.1.15,2013-07-09 02:33:00,
2013-07-08 20:34:00,78.3,49.9,29.65,North,360,2.0,3.0,37,0.00,,,0.00,Wunderground v.1.15,2013-07-09 02:34:00,
2013-07-08 20:35:00,78.2,49.8,29.65,North,360,1.0,3.0,37,0.00,,,0.00,Wunderground v.1.15,2013-07-09 02:35:00,
2013-07-08 20:39:00,77.7,48.6,29.64,North,360,3.0,5.0,36,0.00,,,0.00,Wunderground v.1.15,2013-07-09 02:39:00,
2013-07-08 20:42:00,77.5,48.4,29.65,North,360,1.0,3.0,36,0.00,,,0.00,Wunderground v.1.15,2013-07-09 02:42:00,
2013-07-08 20:44:00,77.4,49.1,29.65,North,360,0.0,3.0,37,0.00,,,0.00,Wunderground v.1.15,2013-07-09 02:44:00,
2013-07-08 20:48:00,77.2,48.2,29.65,North,360,2.0,4.0,36,0.00,,,0.00,Wunderground v.1.15,2013-07-09 02:48:00,
2013-07-08 20:50:00,77.1,48.8,29.65,North,360,1.0,2.0,37,0.00,,,0.00,Wunderground v.1.15,2013-07-09 02:50:00,
2013-07-08 20:54:00,76.8,48.6,29.65,North,360,0.0,2.0,37,0.00,,,0.00,Wunderground v.1.15,2013-07-09 02:54:00,
2013-07-08 20:55:00,76.7,48.5,29.65,North,360,0.0,2.0,37,0.00,,,0.00,Wunderground v.1.15,2013-07-09 02:55:00,
2013-07-08 20:56:00,76.7,49.2,29.65,North,360,0.0,2.0,38,0.00,,,0.00,Wunderground v.1.15,2013-07-09 02:56:00,
2013-07-08 21:00:00,76.3,48.8,29.66,North,360,0.0,1.0,38,0.00,,,0.00,Wunderground v.1.15,2013-07-09 03:00:00,
2013-07-08 21:01:00,76.2,48.7,29.66,North,360,0.0,1.0,38,0.00,,,0.00,Wunderground v.1.15,2013-07-09 03:01:00,
2013-07-08 21:03:00,76.0,48.6,29.66,North,360,0.0,1.0,38,0.00,,,0.00,Wunderground v.1.15,2013-07-09 03:03:00,
2013-07-08 21:05:00,75.8,49.1,29.66,North,360,0.0,1.0,39,0.00,,,0.00,Wunderground v.1.15,2013-07-09 03:05:00,
2013-07-08 21:07:00,75.7,49.0,29.66,North,360,0.0,1.0,39,0.00,,,0.00,Wunderground v.1.15,2013-07-09 03:07:00,
2013-07-08 21:09:00,75.5,48.8,29.66,North,360,0.0,1.0,39,0.00,,,0.00,Wunderground v.1.15,2013-07-09 03:09:00,
2013-07-08 21:11:00,75.3,49.3,29.66,North,360,1.0,1.0,40,0.00,,,0.00,Wunderground v.1.15,2013-07-09 03:11:00,
2013-07-08 21:14:00,75.0,48.4,29.66,North,360,0.0,6.0,39,0.00,,,0.00,Wunderground v.1.15,2013-07-09 03:14:00,
2013-07-08 21:17:00,74.8,48.9,29.67,East,99,2.0,6.0,40,0.00,,,0.00,Wunderground v.1.15,2013-07-09 03:17:00,
2013-07-08 21:19:00,74.6,48.0,29.67,East,101,0.0,6.0,39,0.00,,,0.00,Wunderground v.1.15,2013-07-09 03:19:00,
2013-07-08 21:22:00,74.5,47.9,29.67,North,360,0.0,2.0,39,0.00,,,0.00,Wunderground v.1.15,2013-07-09 03:22:00,
2013-07-08 21:23:00,74.5,47.9,29.67,North,360,0.0,2.0,39,0.00,,,0.00,Wunderground v.1.15,2013-07-09 03:23:00,
2013-07-08 21:25:00,74.4,47.8,29.67,North,360,0.0,2.0,39,0.00,,,0.00,Wunderground v.1.15,2013-07-09 03:25:00,
2013-07-08 21:28:00,74.4,47.8,29.67,North,360,1.0,2.0,39,0.00,,,0.00,Wunderground v.1.15,2013-07-09 03:28:00,
2013-07-08 21:30:00,74.4,47.8,29.67,North,360,0.0,1.0,39,0.00,,,0.00,Wunderground v.1.15,2013-07-09 03:30:00,
2013-07-08 21:34:00,74.4,47.8,29.68,East,100,0.0,1.0,39,0.00,,,0.00,Wunderground v.1.15,2013-07-09 03:34:00,
2013-07-08 21:35:00,74.4,48.5,29.68,North,360,0.0,1.0,40,0.00,,,0.00,Wunderground v.1.15,2013-07-09 03:35:00,
2013-07-08 21:37:00,74.4,48.5,29.68,North,360,0.0,1.0,40,0.00,,,0.00,Wunderground v.1.15,2013-07-09 03:37:00,
2013-07-08 21:42:00,74.4,47.8,29.68,North,360,0.0,2.0,39,0.00,,,0.00,Wunderground v.1.15,2013-07-09 03:42:00,
2013-07-08 21:43:00,74.4,48.5,29.68,North,360,0.0,2.0,40,0.00,,,0.00,Wunderground v.1.15,2013-07-09 03:43:00,
2013-07-08 21:47:00,74.4,48.5,29.68,East,101,0.0,2.0,40,0.00,,,0.00,Wunderground v.1.15,2013-07-09 03:47:00,
2013-07-08 21:49:00,74.4,47.8,29.68,ESE,102,0.0,2.0,39,0.00,,,0.00,Wunderground v.1.15,2013-07-09 03:49:00,
2013-07-08 21:50:00,74.4,47.8,29.68,North,360,0.0,0.0,39,0.00,,,0.00,Wunderground v.1.15,2013-07-09 03:50:00,
2013-07-08 21:52:00,74.3,47.7,29.69,North,360,1.0,1.0,39,0.00,,,0.00,Wunderground v.1.15,2013-07-09 03:52:00,
2013-07-08 21:54:00,74.3,48.4,29.69,ESE,102,0.0,2.0,40,0.00,,,0.00,Wunderground v.1.15,2013-07-09 03:54:00,
2013-07-08 21:56:00,74.2,48.3,29.69,East,101,0.0,2.0,40,0.00,,,0.00,Wunderground v.1.15,2013-07-09 03:56:00,
2013-07-08 21:58:00,74.2,48.3,29.69,ESE,108,0.0,2.0,40,0.00,,,0.00,Wunderground v.1.15,2013-07-09 03:58:00,
2013-07-08 21:59:00,74.1,48.2,29.69,ESE,107,1.0,2.0,40,0.00,,,0.00,Wunderground v.1.15,2013-07-09 03:59:00,
2013-07-08 22:01:00,74.0,48.1,29.69,North,360,0.0,3.0,40,0.00,,,0.00,Wunderground v.1.15,2013-07-09 04:01:00,
2013-07-08 22:03:00,73.9,48.1,29.69,North,360,0.0,3.0,40,0.00,,,0.00,Wunderground v.1.15,2013-07-09 04:03:00,
2013-07-08 22:06:00,73.7,48.5,29.69,ESE,110,0.0,3.0,41,0.00,,,0.00,Wunderground v.1.15,2013-07-09 04:06:00,
2013-07-08 22:08:00,73.6,47.8,29.69,North,360,0.0,3.0,40,0.00,,,0.00,Wunderground v.1.15,2013-07-09 04:08:00,
2013-07-08 22:11:00,73.5,48.4,29.69,ESE,111,2.0,2.0,41,0.00,,,0.00,Wunderground v.1.15,2013-07-09 04:11:00,
2013-07-08 22:12:00,73.4,48.3,29.69,ESE,111,2.0,2.0,41,0.00,,,0.00,Wunderground v.1.15,2013-07-09 04:12:00,
2013-07-08 22:14:00,73.4,48.3,29.69,North,360,0.0,2.0,41,0.00,,,0.00,Wunderground v.1.15,2013-07-09 04:14:00,
2013-07-08 22:16:00,73.2,48.1,29.69,North,360,0.0,2.0,41,0.00,,,0.00,Wunderground v.1.15,2013-07-09 04:16:00,
2013-07-08 22:17:00,73.2,48.1,29.69,ESE,111,0.0,2.0,41,0.00,,,0.00,Wunderground v.1.15,2013-07-09 04:17:00,
2013-07-08 22:19:00,73.0,47.2,29.69,North,360,0.0,0.0,40,0.00,,,0.00,Wunderground v.1.15,2013-07-09 04:19:00,
2013-07-08 22:22:00,73.0,47.9,29.69,North,360,0.0,1.0,41,0.00,,,0.00,Wunderground v.1.15,2013-07-09 04:22:00,
2013-07-08 22:25:00,72.9,47.8,29.69,North,360,2.0,3.0,41,0.00,,,0.00,Wunderground v.1.15,2013-07-09 04:25:00,
2013-07-08 22:27:00,72.9,47.8,29.69,North,360,2.0,5.0,41,0.00,,,0.00,Wunderground v.1.15,2013-07-09 04:27:00,
2013-07-08 22:28:00,72.8,47.7,29.69,ESE,112,0.0,5.0,41,0.00,,,0.00,Wunderground v.1.15,2013-07-09 04:28:00,
2013-07-08 22:30:00,72.8,47.7,29.69,ESE,113,0.0,1.0,41,0.00,,,0.00,Wunderground v.1.15,2013-07-09 04:30:00,
2013-07-08 22:32:00,72.8,47.7,29.69,North,360,0.0,1.0,41,0.00,,,0.00,Wunderground v.1.15,2013-07-09 04:32:00,
2013-07-08 22:33:00,72.8,47.7,29.69,North,360,0.0,1.0,41,0.00,,,0.00,Wunderground v.1.15,2013-07-09 04:33:00,
2013-07-08 22:34:00,72.8,47.7,29.69,North,360,0.0,1.0,41,0.00,,,0.00,Wunderground v.1.15,2013-07-09 04:34:00,
2013-07-08 22:35:00,72.7,47.6,29.69,North,360,1.0,1.0,41,0.00,,,0.00,Wunderground v.1.15,2013-07-09 04:35:00,
2013-07-08 22:37:00,72.7,47.6,29.69,ESE,113,1.0,2.0,41,0.00,,,0.00,Wunderground v.1.15,2013-07-09 04:37:00,
2013-07-08 22:38:00,72.7,47.6,29.69,North,360,0.0,2.0,41,0.00,,,0.00,Wunderground v.1.15,2013-07-09 04:38:00,
2013-07-08 22:39:00,72.7,47.6,29.69,North,360,3.0,3.0,41,0.00,,,0.00,Wunderground v.1.15,2013-07-09 04:39:00,
2013-07-08 22:40:00,72.7,47.6,29.69,North,360,2.0,2.0,41,0.00,,,0.00,Wunderground v.1.15,2013-07-09 04:40:00,
2013-07-08 22:43:00,72.7,47.0,29.69,ESE,115,4.0,4.0,40,0.00,,,0.00,Wunderground v.1.15,2013-07-09 04:43:00,
2013-07-08 22:44:00,72.8,47.1,29.69,ESE,116,2.0,4.0,40,0.00,,,0.00,Wunderground v.1.15,2013-07-09 04:44:00,
2013-07-08 22:45:00,72.9,47.2,29.69,ESE,119,3.0,4.0,40,0.00,,,0.00,Wunderground v.1.15,2013-07-09 04:45:00,
2013-07-08 22:48:00,73.0,47.2,29.69,ESE,117,0.0,4.0,40,0.00,,,0.00,Wunderground v.1.15,2013-07-09 04:48:00,
2013-07-08 22:49:00,73.0,47.2,29.69,ESE,118,0.0,4.0,40,0.00,,,0.00,Wunderground v.1.15,2013-07-09 04:49:00,
2013-07-08 22:51:00,73.0,47.2,29.69,ESE,118,3.0,5.0,40,0.00,,,0.00,Wunderground v.1.15,2013-07-09 04:51:00,
2013-07-08 22:53:00,73.0,47.2,29.69,North,360,1.0,5.0,40,0.00,,,0.00,Wunderground v.1.15,2013-07-09 04:53:00,
2013-07-08 22:54:00,73.0,47.2,29.69,ESE,121,1.0,5.0,40,0.00,,,0.00,Wunderground v.1.15,2013-07-09 04:54:00,
2013-07-08 22:56:00,73.0,47.2,29.69,ESE,119,0.0,5.0,40,0.00,,,0.00,Wunderground v.1.15,2013-07-09 04:56:00,
2013-07-08 22:58:00,72.9,47.2,29.69,ESE,123,3.0,5.0,40,0.00,,,0.00,Wunderground v.1.15,2013-07-09 04:58:00,
2013-07-08 22:59:00,72.9,47.2,29.69,SE,135,4.0,5.0,40,0.00,,,0.00,Wunderground v.1.15,2013-07-09 04:59:00,
2013-07-08 23:00:00,73.0,46.6,29.69,SE,138,2.0,3.0,39,0.00,,,0.00,Wunderground v.1.15,2013-07-09 05:00:00,
2013-07-08 23:01:00,73.1,46.7,29.69,SE,145,5.0,6.0,39,0.00,,,0.00,Wunderground v.1.15,2013-07-09 05:01:00,
2013-07-08 23:03:00,73.2,46.8,29.69,SSW,202,5.0,6.0,39,0.00,,,0.00,Wunderground v.1.15,2013-07-09 05:03:00,
2013-07-08 23:04:00,73.3,46.8,29.69,SW,216,4.0,6.0,39,0.00,,,0.00,Wunderground v.1.15,2013-07-09 05:04:00,
2013-07-08 23:05:00,73.4,46.9,29.69,North,360,5.0,7.0,39,0.00,,,0.00,Wunderground v.1.15,2013-07-09 05:05:00,
2013-07-08 23:06:00,73.5,47.0,29.69,North,360,3.0,7.0,39,0.00,,,0.00,Wunderground v.1.15,2013-07-09 05:06:00,
2013-07-08 23:09:00,73.9,46.7,29.69,North,360,8.0,8.0,38,0.00,,,0.00,Wunderground v.1.15,2013-07-09 05:09:00,
2013-07-08 23:11:00,74.2,47.0,29.69,North,360,2.0,8.0,38,0.00,,,0.00,Wunderground v.1.15,2013-07-09 05:11:00,
2013-07-08 23:12:00,74.3,47.0,29.69,SSW,206,4.0,8.0,38,0.00,,,0.00,Wunderground v.1.15,2013-07-09 05:12:00,
2013-07-08 23:14:00,74.6,47.3,29.69,North,360,6.0,9.0,38,0.00,,,0.00,Wunderground v.1.15,2013-07-09 05:14:00,
2013-07-08 23:15:00,74.6,47.3,29.69,North,360,2.0,9.0,38,0.00,,,0.00,Wunderground v.1.15,2013-07-09 05:15:00,
2013-07-08 23:16:00,74.8,47.5,29.69,SSW,206,3.0,9.0,38,0.00,,,0.00,Wunderground v.1.15,2013-07-09 05:16:00,
2013-07-08 23:17:00,74.8,46.8,29.69,North,360,2.0,9.0,37,0.00,,,0.00,Wunderground v.1.15,2013-07-09 05:17:00,
2013-07-08 23:19:00,74.9,46.9,29.69,North,360,2.0,9.0,37,0.00,,,0.00,Wunderground v.1.15,2013-07-09 05:19:00,
2013-07-08 23:20:00,74.9,46.9,29.69,North,360,7.0,7.0,37,0.00,,,0.00,Wunderground v.1.15,2013-07-09 05:20:00,
2013-07-08 23:22:00,74.9,46.9,29.69,SSW,199,6.0,11.0,37,0.00,,,0.00,Wunderground v.1.15,2013-07-09 05:22:00,
2013-07-08 23:24:00,75.1,47.0,29.69,SSW,206,4.0,11.0,37,0.00,,,0.00,Wunderground v.1.15,2013-07-09 05:24:00,
2013-07-08 23:25:00,75.1,47.0,29.69,North,360,5.0,11.0,37,0.00,,,0.00,Wunderground v.1.15,2013-07-09 05:25:00,
2013-07-08 23:27:00,75.1,47.0,29.69,South,189,2.0,11.0,37,0.00,,,0.00,Wunderground v.1.15,2013-07-09 05:27:00,
2013-07-08 23:30:00,75.1,47.0,29.70,SSW,196,0.0,4.0,37,0.00,,,0.00,Wunderground v.1.15,2013-07-09 05:30:00,
2013-07-08 23:31:00,75.1,47.0,29.70,SSW,196,0.0,4.0,37,0.00,,,0.00,Wunderground v.1.15,2013-07-09 05:31:00,
2013-07-08 23:32:00,75.1,47.0,29.70,SSW,196,1.0,4.0,37,0.00,,,0.00,Wunderground v.1.15,2013-07-09 05:32:00,
2013-07-08 23:35:00,75.0,47.0,29.70,SSE,167,3.0,8.0,37,0.00,,,0.00,Wunderground v.1.15,2013-07-09 05:35:00,
2013-07-08 23:36:00,75.0,47.0,29.70,SSE,167,1.0,8.0,37,0.00,,,0.00,Wunderground v.1.15,2013-07-09 05:36:00,
2013-07-08 23:37:00,75.1,47.0,29.70,SSE,167,0.0,8.0,37,0.00,,,0.00,Wunderground v.1.15,2013-07-09 05:37:00,
2013-07-08 23:40:00,75.0,47.0,29.69,SSE,163,4.0,4.0,37,0.00,,,0.00,Wunderground v.1.15,2013-07-09 05:40:00,
2013-07-08 23:41:00,75.0,47.0,29.69,SSE,167,3.0,5.0,37,0.00,,,0.00,Wunderground v.1.15,2013-07-09 05:41:00,
2013-07-08 23:42:00,74.9,46.9,29.70,SSE,167,3.0,5.0,37,0.00,,,0.00,Wunderground v.1.15,2013-07-09 05:42:00,
2013-07-08 23:43:00,74.9,46.9,29.70,SSE,167,2.0,5.0,37,0.00,,,0.00,Wunderground v.1.15,2013-07-09 05:43:00,
2013-07-08 23:46:00,74.8,46.8,29.70,SSE,167,0.0,6.0,37,0.00,,,0.00,Wunderground v.1.15,2013-07-09 05:46:00,
2013-07-08 23:48:00,74.6,46.6,29.70,SSE,168,3.0,6.0,37,0.00,,,0.00,Wunderground v.1.15,2013-07-09 05:48:00,
2013-07-08 23:51:00,74.4,46.4,29.70,South,181,0.0,5.0,37,0.00,,,0.00,Wunderground v.1.15,2013-07-09 05:51:00,
2013-07-08 23:52:00,74.4,46.4,29.70,South,181,0.0,5.0,37,0.00,,,0.00,Wunderground v.1.15,2013-07-09 05:52:00,
2013-07-08 23:53:00,74.3,47.0,29.70,South,182,2.0,5.0,38,0.00,,,0.00,Wunderground v.1.15,2013-07-09 05:53:00,
2013-07-08 23:56:00,74.2,47.0,29.70,South,184,4.0,5.0,38,0.00,,,0.00,Wunderground v.1.15,2013-07-09 05:56:00,
2013-07-08 23:57:00,74.2,47.0,29.70,SSW,196,4.0,6.0,38,0.00,,,0.00,Wunderground v.1.15,2013-07-09 05:57:00,
2013-07-08 23:58:00,74.2,47.0,29.70,SSW,197,3.0,6.0,38,0.00,,,0.00,Wunderground v.1.15,2013-07-09 05:58:00,